GFSMW_500_temp_069.txt.gz
Temp
-13 -13 -13 -13 -12 -12 -12 -11 -12 -12 -12 -12 -12 -12 -12 -12 -12 -12 -12 -12 -13 -12 -12 -13 -12 -12 -12 -12 -12 -13 -13 -13 -13 -14 -14 -14 -15 -16 -16 -17 -17 -17 -17
-13 -13 -13 -13 -13 -12 -12 -12 -12 -13 -13 -13 -13 -13 -13 -13 -13 -13 -13 -13 -12 -13 -13 -13 -13 -13 -13 -13 -13 -13 -13 -13 -14 -14 -15 -15 -15 -16 -16 -17 -16 -16 -16
-13 -13 -13 -13 -13 -13 -12 -13 -13 -13 -13 -13 -13 -12 -13 -13 -13 -13 -13 -13 -13 -13 -13 -13 -13 -13 -13 -13 -13 -13 -14 -15 -14 -15 -15 -16 -16 -16 -16 -16 -16 -16 -16
-13 -13 -13 -12 -13 -13 -13 -13 -13 -13 -13 -13 -13 -13 -13 -13 -13 -12 -13 -13 -13 -14 -13 -13 -13 -13 -13 -14 -14 -13 -14 -15 -15 -15 -15 -16 -16 -16 -16 -16 -16 -15 -15
-13 -14 -13 -13 -13 -13 -13 -13 -13 -14 -14 -13 -13 -13 -13 -13 -13 -13 -13 -13 -13 -13 -13 -13 -14 -13 -14 -14 -14 -14 -14 -15 -15 -15 -15 -15 -16 -16 -16 -16 -16 -16 -15
-13 -14 -13 -13 -13 -13 -13 -13 -13 -13 -13 -13 -13 -12 -12 -13 -13 -13 -13 -13 -13 -13 -13 -14 -13 -14 -14 -14 -15 -15 -15 -15 -15 -15 -15 -16 -16 -16 -16 -16 -16 -15 -15
-14 -14 -13 -13 -13 -13 -14 -14 -13 -13 -13 -13 -13 -13 -14 -13 -14 -13 -14 -13 -14 -14 -13 -14 -14 -14 -14 -14 -15 -15 -15 -15 -15 -15 -15 -16 -16 -16 -16 -16 -16 -16 -16
-14 -14 -13 -13 -13 -13 -14 -14 -14 -13 -13 -13 -13 -13 -13 -13 -13 -14 -14 -14 -14 -14 -14 -14 -14 -14 -14 -15 -15 -15 -14 -15 -15 -15 -15 -15 -16 -16 -16 -16 -16 -15 -15
-14 -14 -13 -13 -13 -13 -13 -14 -14 -14 -14 -14 -13 -13 -13 -13 -13 -13 -13 -13 -13 -14 -14 -14 -14 -14 -14 -14 -14 -14 -15 -15 -15 -15 -15 -15 -15 -16 -16 -16 -15 -15 -15
-14 -14 -14 -14 -14 -14 -14 -14 -14 -14 -14 -14 -14 -14 -14 -14 -14 -14 -14 -14 -14 -14 -14 -14 -14 -14 -15 -15 -14 -15 -15 -15 -15 -15 -15 -15 -15 -15 -16 -16 -15 -16 -16
-14 -14 -14 -14 -14 -14 -14 -14 -14 -14 -14 -14 -14 -14 -14 -14 -14 -14 -14 -14 -14 -14 -14 -14 -14 -14 -14 -14 -14 -14 -15 -15 -15 -15 -15 -15 -15 -15 -15 -16 -16 -16 -16
-14 -14 -14 -14 -14 -14 -14 -15 -14 -14 -14 -14 -14 -14 -14 -14 -14 -14 -14 -14 -14 -14 -14 -14 -14 -14 -14 -14 -14 -14 -15 -15 -15 -15 -15 -15 -15 -15 -16 -15 -15 -15 -15
-15 -15 -14 -15 -15 -14 -14 -15 -15 -15 -15 -14 -14 -14 -14 -14 -14 -14 -14 -14 -14 -14 -14 -14 -14 -15 -14 -14 -14 -15 -15 -15 -15 -15 -15 -15 -15 -15 -15 -16 -15 -15 -15
-15 -15 -15 -14 -15 -15 -15 -15 -15 -15 -15 -15 -15 -15 -15 -15 -15 -15 -14 -14 -14 -14 -14 -14 -14 -14 -14 -14 -14 -14 -15 -15 -15 -15 -15 -15 -15 -15 -15 -15 -15 -15 -16
-16 -15 -16 -15 -15 -15 -15 -15 -15 -15 -15 -15 -15 -16 -16 -16 -15 -15 -15 -15 -15 -15 -14 -14 -14 -15 -15 -15 -14 -15 -15 -15 -15 -15 -15 -15 -15 -15 -15 -15 -16 -16 -16
-16 -15 -15 -15 -15 -16 -16 -15 -15 -16 -16 -15 -15 -16 -16 -16 -16 -16 -15 -16 -16 -15 -15 -15 -15 -15 -15 -15 -15 -15 -15 -15 -15 -15 -15 -15 -15 -15 -15 -16 -16 -16 -16
-15 -15 -16 -16 -16 -16 -16 -16 -16 -16 -16 -16 -16 -16 -16 -16 -16 -16 -16 -16 -16 -16 -16 -16 -15 -15 -15 -15 -15 -15 -15 -15 -15 -15 -15 -14 -15 -16 -15 -16 -16 -16 -16
-15 -15 -16 -16 -16 -16 -16 -16 -16 -16 -16 -16 -16 -16 -16 -16 -16 -17 -17 -17 -17 -17 -16 -16 -16 -16 -16 -16 -16 -16 -16 -16 -16 -15 -16 -16 -16 -16 -16 -16 -16 -17 -16
-16 -15 -15 -15 -16 -16 -16 -16 -16 -16 -16 -16 -17 -15 -15 -16 -16 -16 -17 -17 -17 -17 -17 -17 -17 -17 -16 -16 -16 -16 -16 -16 -16 -16 -16 -16 -16 -16 -16 -16 -16 -17 -16
-16 -16 -16 -15 -16 -16 -16 -17 -16 -16 -16 -16 -16 -16 -16 -16 -17 -17 -17 -17 -16 -16 -16 -17 -17 -17 -16 -17 -17 -17 -16 -16 -16 -16 -16 -16 -16 -16 -16 -16 -17 -17 -17
-16 -16 -16 -16 -16 -16 -16 -16 -16 -16 -16 -16 -17 -17 -17 -17 -17 -17 -17 -17 -17 -17 -16 -16 -17 -17 -17 -17 -17 -17 -17 -17 -17 -17 -17 -17 -17 -17 -17 -17 -17 -18 -17
-17 -17 -17 -16 -16 -16 -16 -15 -16 -16 -15 -16 -16 -17 -17 -17 -17 -17 -16 -16 -17 -17 -17 -16 -16 -16 -16 -16 -17 -17 -17 -18 -18 -18 -18 -17 -17 -17 -17 -17 -18 -18 -18
-16 -16 -16 -17 -17 -16 -16 -16 -16 -16 -16 -16 -16 -16 -16 -17 -16 -16 -16 -16 -17 -17 -16 -16 -16 -16 -16 -16 -16 -17 -17 -18 -18 -18 -18 -18 -18 -18 -18 -18 -18 -18 -18
-18 -17 -17 -17 -17 -18 -17 -17 -16 -16 -16 -17 -17 -17 -16 -16 -16 -16 -16 -16 -16 -16 -16 -16 -16 -16 -17 -17 -17 -17 -17 -18 -18 -18 -18 -18 -18 -17 -18 -18 -18 -18 -18
-19 -18 -18 -18 -18 -18 -18 -18 -17 -17 -17 -16 -17 -17 -17 -17 -17 -17 -17 -16 -16 -16 -16 -16 -17 -17 -16 -17 -17 -16 -17 -17 -18 -18 -18 -18 -18 -18 -18 -18 -18 -18 -18
-19 -19 -19 -19 -18 -18 -18 -18 -18 -18 -17 -17 -17 -17 -17 -17 -17 -17 -17 -17 -17 -17 -17 -17 -17 -17 -17 -17 -17 -17 -17 -17 -18 -18 -18 -18 -18 -18 -19 -19 -19 -20 -20

GFSMW_500_temp_072.txt.gz
Temp
-13 -13 -12 -13 -12 -12 -11 -11 -11 -11 -11 -11 -11 -11 -11 -11 -11 -11 -12 -12 -12 -12 -12 -12 -12 -12 -12 -12 -12 -12 -12 -13 -13 -12 -13 -13 -13 -14 -14 -15 -15 -15 -16
-13 -13 -12 -13 -13 -12 -12 -12 -11 -12 -12 -11 -11 -11 -12 -12 -12 -12 -12 -12 -12 -12 -12 -13 -13 -12 -12 -13 -12 -12 -12 -13 -13 -13 -13 -14 -14 -15 -15 -16 -16 -16 -16
-13 -13 -12 -13 -13 -13 -12 -12 -12 -12 -12 -13 -12 -12 -12 -13 -13 -13 -12 -12 -12 -12 -12 -13 -13 -13 -13 -13 -13 -14 -13 -13 -13 -13 -14 -14 -15 -15 -15 -15 -16 -16 -16
-13 -13 -12 -13 -13 -13 -13 -13 -13 -12 -12 -13 -13 -12 -12 -12 -12 -12 -12 -12 -12 -12 -13 -13 -13 -13 -13 -13 -13 -14 -13 -13 -14 -15 -15 -15 -15 -15 -15 -16 -15 -16 -15
-13 -13 -12 -12 -13 -13 -13 -13 -13 -13 -13 -13 -13 -12 -12 -12 -12 -12 -13 -13 -12 -12 -12 -13 -13 -13 -13 -13 -14 -14 -14 -14 -15 -15 -15 -15 -15 -15 -15 -15 -16 -15 -15
-13 -13 -13 -12 -13 -13 -13 -13 -13 -13 -13 -13 -13 -13 -12 -12 -12 -13 -13 -13 -13 -13 -13 -13 -13 -13 -13 -14 -14 -14 -14 -14 -15 -15 -15 -15 -16 -16 -16 -16 -16 -15 -15
-13 -13 -13 -13 -13 -13 -13 -13 -13 -13 -13 -13 -13 -13 -12 -12 -13 -13 -13 -13 -13 -13 -14 -14 -13 -14 -14 -14 -14 -14 -14 -14 -15 -15 -15 -15 -15 -16 -16 -16 -16 -16 -15
-13 -13 -13 -13 -13 -13 -13 -13 -13 -13 -13 -13 -13 -13 -13 -13 -13 -13 -13 -13 -13 -14 -13 -14 -14 -14 -14 -14 -14 -14 -14 -15 -15 -15 -15 -15 -15 -15 -16 -16 -16 -15 -15
-13 -13 -13 -13 -13 -13 -13 -13 -13 -14 -13 -13 -13 -13 -13 -13 -13 -13 -13 -13 -13 -13 -13 -13 -14 -14 -14 -14 -15 -15 -15 -15 -15 -15 -15 -15 -15 -16 -16 -16 -16 -16 -15
-13 -13 -13 -13 -13 -13 -13 -14 -13 -14 -13 -13 -13 -13 -13 -13 -13 -13 -13 -13 -13 -13 -13 -13 -13 -13 -13 -13 -14 -14 -14 -15 -15 -15 -15 -15 -16 -15 -15 -16 -16 -16 -15
-13 -13 -13 -14 -13 -14 -14 -14 -14 -14 -14 -13 -13 -14 -14 -14 -14 -13 -13 -13 -13 -13 -13 -13 -13 -14 -14 -13 -13 -14 -14 -14 -15 -15 -15 -15 -16 -15 -15 -15 -16 -16 -15
-13 -13 -14 -14 -14 -14 -14 -14 -14 -14 -14 -14 -14 -14 -14 -14 -14 -14 -14 -14 -14 -14 -14 -14 -14 -14 -14 -13 -14 -14 -14 -14 -15 -15 -15 -15 -15 -15 -15 -15 -16 -15 -15
-14 -14 -14 -14 -14 -14 -14 -14 -14 -14 -14 -14 -14 -14 -14 -15 -15 -14 -14 -14 -14 -14 -14 -14 -14 -14 -14 -14 -14 -15 -15 -15 -15 -15 -15 -15 -15 -15 -15 -16 -15 -15 -15
-15 -14 -14 -14 -14 -15 -14 -14 -14 -14 -14 -15 -15 -15 -15 -15 -15 -15 -15 -15 -15 -15 -15 -14 -14 -14 -14 -14 -15 -15 -14 -15 -15 -15 -15 -15 -15 -15 -15 -15 -15 -15 -15
-15 -16 -16 -15 -15 -15 -15 -15 -15 -15 -15 -15 -15 -15 -15 -15 -15 -15 -15 -15 -15 -15 -15 -15 -15 -15 -14 -14 -14 -15 -15 -15 -15 -15 -16 -16 -16 -16 -16 -16 -16 -16 -16
-15 -15 -14 -14 -14 -15 -15 -15 -15 -15 -15 -15 -15 -15 -15 -16 -15 -15 -16 -16 -15 -15 -15 -15 -16 -16 -15 -15 -15 -15 -15 -15 -15 -15 -15 -15 -15 -16 -16 -16 -16 -16 -16
-15 -15 -16 -15 -15 -15 -15 -15 -15 -15 -15 -16 -16 -16 -16 -15 -16 -16 -16 -16 -16 -16 -16 -16 -16 -16 -16 -16 -16 -16 -15 -15 -15 -15 -15 -15 -15 -16 -16 -16 -16 -16 -16
-15 -15 -15 -15 -16 -16 -16 -16 -16 -15 -16 -16 -16 -16 -16 -16 -16 -16 -16 -16 -16 -16 -16 -17 -17 -17 -16 -16 -17 -17 -16 -16 -16 -16 -16 -16 -16 -16 -16 -16 -16 -16 -16
-16 -16 -15 -15 -15 -16 -16 -16 -15 -15 -15 -15 -16 -16 -16 -16 -16 -16 -16 -16 -16 -16 -16 -16 -17 -17 -17 -17 -18 -18 -17 -17 -17 -16 -16 -16 -16 -16 -16 -16 -16 -16 -16
-17 -17 -16 -16 -16 -16 -16 -16 -16 -16 -16 -16 -16 -16 -16 -16 -16 -16 -16 -17 -16 -16 -17 -16 -16 -16 -17 -17 -17 -17 -17 -17 -16 -16 -16 -16 -16 -16 -16 -16 -16 -17 -17
-16 -17 -17 -17 -16 -16 -17 -16 -16 -16 -16 -16 -16 -16 -15 -15 -16 -16 -16 -16 -16 -16 -17 -17 -16 -16 -16 -16 -16 -16 -16 -16 -16 -16 -16 -16 -16 -16 -16 -17 -17 -17 -17
-17 -18 -17 -17 -17 -17 -17 -17 -16 -17 -17 -16 -16 -16 -16 -15 -15 -15 -16 -16 -16 -17 -17 -17 -17 -17 -16 -16 -16 -16 -16 -16 -16 -16 -16 -16 -16 -16 -17 -16 -17 -18 -18
-17 -17 -16 -16 -16 -16 -16 -16 -16 -16 -16 -16 -16 -16 -16 -16 -16 -16 -15 -16 -16 -16 -16 -16 -16 -16 -15 -16 -16 -16 -15 -16 -16 -15 -16 -16 -16 -17 -17 -17 -18 -18 -18
-18 -18 -18 -18 -17 -17 -17 -17 -16 -16 -16 -17 -17 -16 -16 -16 -16 -16 -16 -16 -16 -16 -17 -16 -16 -16 -16 -16 -16 -16 -16 -16 -16 -16 -16 -17 -17 -17 -17 -17 -18 -18 -18
-19 -19 -19 -19 -19 -18 -18 -18 -18 -18 -18 -17 -17 -17 -17 -17 -17 -17 -17 -17 -16 -16 -16 -16 -16 -16 -16 -16 -16 -16 -16 -16 -17 -17 -17 -17 -17 -17 -17 -17 -18 -18 -18
-20 -20 -20 -19 -19 -19 -19 -18 -18 -18 -18 -18 -18 -18 -18 -18 -18 -17 -17 -17 -17 -17 -17 -17 -17 -16 -16 -16 -16 -16 -16 -17 -17 -17 -17 -17 -17 -18 -18 -19 -19 -19 -20

GFSMW_500_temp_078.txt.gz
Temp
-13 -14 -14 -14 -13 -13 -13 -13 -13 -12 -12 -12 -11 -11 -12 -12 -12 -12 -12 -12 -12 -12 -12 -12 -12 -12 -13 -13 -12 -12 -12 -12 -11 -13 -12 -13 -13 -13 -13 -13 -13 -13 -13
-13 -15 -15 -14 -13 -13 -13 -13 -13 -12 -12 -12 -11 -12 -12 -12 -12 -12 -12 -12 -12 -12 -12 -12 -13 -13 -13 -13 -13 -12 -13 -12 -12 -13 -12 -13 -13 -13 -13 -13 -14 -14 -14
-13 -15 -15 -14 -13 -13 -13 -13 -13 -13 -13 -12 -12 -12 -12 -12 -12 -12 -12 -12 -12 -12 -12 -12 -12 -12 -12 -12 -12 -12 -12 -12 -13 -13 -13 -13 -13 -13 -13 -13 -14 -13 -14
-13 -15 -15 -14 -13 -12 -12 -13 -13 -13 -13 -13 -13 -12 -12 -12 -12 -12 -12 -12 -12 -12 -13 -12 -13 -12 -12 -12 -12 -12 -12 -12 -13 -13 -13 -13 -14 -14 -14 -14 -14 -14 -15
-13 -15 -15 -14 -13 -13 -13 -13 -14 -13 -13 -13 -13 -12 -12 -12 -13 -12 -12 -12 -12 -12 -12 -13 -12 -12 -13 -13 -12 -12 -12 -12 -14 -14 -13 -13 -14 -14 -14 -14 -14 -15 -15
-14 -15 -15 -14 -13 -13 -13 -13 -13 -13 -13 -13 -13 -13 -13 -12 -12 -13 -13 -13 -13 -13 -13 -13 -13 -13 -13 -13 -13 -14 -13 -13 -13 -13 -13 -14 -14 -14 -15 -15 -15 -15 -16
-14 -15 -15 -14 -14 -14 -13 -13 -14 -14 -13 -13 -13 -13 -13 -13 -12 -13 -13 -13 -13 -13 -13 -13 -13 -13 -13 -13 -14 -14 -14 -14 -14 -14 -14 -14 -14 -15 -15 -15 -15 -16 -15
-14 -14 -15 -14 -14 -14 -13 -14 -14 -14 -14 -13 -13 -13 -13 -13 -13 -13 -14 -14 -14 -13 -13 -13 -13 -14 -14 -14 -14 -13 -14 -14 -14 -14 -15 -15 -15 -15 -16 -16 -16 -15 -15
-14 -15 -14 -14 -14 -14 -14 -14 -14 -14 -14 -14 -13 -13 -13 -13 -13 -14 -14 -14 -14 -14 -14 -13 -13 -13 -13 -13 -13 -13 -14 -14 -14 -14 -15 -15 -15 -15 -16 -15 -15 -15 -15
-14 -15 -15 -14 -14 -14 -14 -14 -14 -14 -14 -14 -14 -14 -13 -13 -13 -13 -13 -14 -14 -14 -14 -14 -14 -14 -14 -13 -13 -14 -14 -14 -14 -14 -14 -15 -15 -15 -15 -16 -15 -15 -15
-14 -14 -14 -14 -14 -14 -14 -14 -14 -14 -14 -14 -14 -14 -14 -14 -13 -14 -13 -14 -14 -14 -14 -14 -14 -14 -14 -14 -14 -14 -14 -14 -14 -14 -15 -15 -15 -15 -15 -15 -15 -15 -15
-14 -14 -14 -14 -14 -14 -14 -14 -14 -14 -14 -14 -14 -14 -14 -14 -14 -14 -14 -14 -14 -14 -14 -14 -14 -14 -14 -14 -14 -14 -14 -14 -14 -15 -15 -15 -15 -15 -15 -15 -15 -15 -15
-13 -14 -14 -14 -14 -14 -14 -14 -14 -14 -14 -14 -15 -15 -15 -15 -14 -14 -15 -15 -15 -15 -14 -14 -15 -14 -14 -14 -15 -15 -15 -15 -15 -15 -15 -15 -15 -15 -15 -15 -15 -15 -15
-13 -13 -13 -13 -13 -14 -14 -14 -14 -14 -14 -14 -14 -15 -15 -15 -15 -15 -15 -15 -15 -15 -15 -15 -15 -15 -15 -14 -14 -14 -14 -15 -15 -15 -15 -15 -15 -15 -15 -15 -15 -15 -15
-14 -13 -13 -14 -14 -14 -14 -13 -13 -13 -13 -14 -14 -14 -15 -15 -15 -15 -15 -15 -16 -16 -16 -16 -16 -16 -15 -15 -15 -15 -15 -15 -15 -15 -15 -15 -15 -16 -16 -16 -16 -16 -16
-14 -13 -13 -14 -14 -14 -14 -14 -14 -14 -15 -15 -15 -14 -14 -14 -14 -15 -15 -15 -16 -16 -16 -16 -16 -16 -16 -16 -16 -16 -16 -16 -16 -16 -16 -16 -16 -16 -17 -16 -16 -16 -16
-14 -14 -15 -14 -14 -14 -14 -15 -15 -15 -15 -15 -15 -15 -15 -15 -15 -15 -15 -15 -15 -15 -15 -15 -16 -16 -16 -16 -16 -16 -15 -16 -16 -17 -17 -16 -17 -17 -17 -17 -17 -17 -17
-14 -15 -15 -15 -15 -15 -15 -15 -15 -15 -15 -15 -15 -15 -15 -15 -15 -16 -15 -15 -15 -15 -15 -15 -16 -16 -16 -16 -16 -16 -16 -16 -16 -16 -17 -17 -17 -17 -17 -17 -17 -17 -17
-15 -15 -15 -15 -16 -15 -15 -15 -15 -15 -15 -15 -15 -15 -16 -16 -15 -15 -15 -15 -15 -15 -15 -15 -15 -15 -16 -16 -16 -16 -16 -16 -16 -16 -16 -16 -16 -17 -17 -17 -17 -17 -17
-15 -16 -16 -16 -16 -16 -16 -16 -16 -15 -15 -15 -16 -15 -15 -16 -16 -16 -16 -16 -16 -16 -16 -16 -16 -16 -15 -15 -16 -16 -16 -16 -16 -16 -16 -16 -16 -16 -17 -17 -17 -17 -17
-16 -16 -16 -16 -16 -16 -16 -16 -16 -16 -16 -17 -16 -16 -15 -15 -15 -16 -16 -16 -16 -16 -16 -16 -16 -16 -16 -16 -16 -16 -16 -16 -16 -16 -16 -16 -16 -16 -16 -17 -17 -17 -17
-16 -17 -17 -17 -17 -17 -17 -17 -17 -17 -17 -17 -17 -17 -16 -16 -16 -16 -16 -16 -16 -16 -16 -16 -16 -16 -16 -16 -16 -16 -16 -16 -16 -16 -16 -15 -15 -15 -15 -16 -17 -17 -17
-17 -17 -17 -17 -17 -17 -17 -17 -18 -17 -17 -17 -17 -17 -17 -17 -17 -17 -16 -16 -16 -16 -16 -16 -16 -16 -16 -16 -16 -16 -16 -16 -16 -16 -16 -16 -16 -16 -16 -16 -16 -17 -17
-17 -17 -18 -18 -18 -18 -17 -17 -17 -17 -17 -17 -17 -16 -16 -17 -17 -17 -17 -17 -17 -17 -17 -17 -16 -16 -16 -16 -16 -16 -16 -17 -16 -16 -16 -17 -17 -16 -17 -16 -16 -16 -17
-18 -18 -18 -18 -18 -18 -18 -17 -17 -17 -17 -17 -17 -18 -18 -18 -18 -18 -18 -18 -18 -18 -18 -17 -17 -17 -17 -17 -17 -17 -17 -17 -17 -17 -17 -18 -18 -17 -17 -17 -17 -17 -17
-18 -18 -18 -18 -18 -18 -18 -18 -18 -19 -19 -19 -19 -19 -19 -19 -19 -19 -19 -18 -18 -18 -18 -18 -18 -18 -18 -18 -18 -18 -18 -18 -18 -18 -19 -19 -18 -18 -17 -18 -17 -17 -18

GFSMW_500_temp_081.txt.gz
Temp
-14 -14 -15 -14 -13 -14 -14 -13 -13 -13 -13 -13 -13 -12 -12 -12 -12 -12 -12 -12 -12 -12 -12 -12 -12 -12 -13 -13 -13 -13 -13 -13 -13 -13 -13 -13 -13 -13 -13 -13 -13 -13 -14
-14 -14 -15 -15 -14 -14 -14 -13 -13 -13 -13 -13 -13 -13 -12 -12 -12 -12 -12 -12 -12 -12 -12 -12 -13 -13 -13 -13 -13 -13 -13 -13 -13 -13 -13 -13 -13 -13 -13 -13 -13 -13 -13
-14 -15 -15 -15 -14 -14 -13 -13 -13 -13 -13 -13 -13 -13 -12 -12 -12 -12 -12 -12 -12 -12 -12 -12 -12 -13 -13 -13 -13 -13 -12 -13 -12 -13 -13 -13 -13 -13 -13 -13 -13 -13 -13
-13 -15 -15 -15 -14 -14 -13 -13 -13 -13 -13 -13 -13 -13 -12 -12 -12 -12 -12 -12 -12 -12 -12 -12 -13 -13 -13 -13 -13 -13 -12 -13 -12 -12 -12 -13 -13 -13 -14 -14 -14 -14 -14
-13 -15 -16 -15 -14 -14 -13 -13 -13 -13 -13 -13 -13 -13 -12 -13 -12 -12 -12 -12 -12 -12 -12 -12 -13 -13 -13 -13 -13 -12 -12 -13 -13 -13 -13 -13 -14 -14 -14 -13 -14 -14 -14
-14 -15 -16 -15 -14 -14 -14 -13 -13 -13 -13 -13 -13 -13 -13 -13 -12 -12 -12 -12 -12 -12 -12 -13 -13 -13 -13 -13 -13 -13 -12 -13 -13 -13 -13 -14 -14 -15 -14 -14 -14 -14 -14
-14 -14 -15 -15 -15 -14 -14 -14 -14 -13 -14 -13 -13 -13 -13 -13 -13 -13 -12 -13 -12 -13 -12 -13 -13 -13 -13 -13 -13 -13 -13 -13 -13 -13 -13 -14 -14 -14 -14 -15 -15 -15 -15
-15 -14 -15 -15 -15 -15 -14 -14 -14 -14 -14 -14 -13 -13 -13 -12 -12 -13 -13 -13 -13 -13 -13 -13 -13 -13 -13 -13 -13 -14 -14 -13 -13 -14 -14 -14 -14 -14 -14 -15 -15 -15 -16
-14 -15 -15 -15 -15 -15 -15 -14 -14 -14 -14 -14 -14 -14 -13 -13 -12 -12 -13 -13 -13 -13 -14 -13 -13 -13 -13 -13 -14 -14 -13 -14 -14 -14 -15 -14 -14 -14 -15 -15 -15 -15 -15
-14 -15 -15 -15 -14 -15 -14 -14 -14 -14 -14 -14 -14 -14 -14 -13 -13 -13 -13 -14 -14 -14 -14 -14 -14 -15 -14 -14 -14 -14 -14 -15 -15 -15 -15 -15 -15 -15 -15 -15 -15 -15 -15
-15 -15 -15 -15 -15 -15 -14 -14 -14 -14 -14 -14 -14 -14 -14 -14 -14 -14 -14 -14 -14 -14 -14 -14 -14 -14 -14 -14 -14 -14 -14 -14 -15 -15 -15 -15 -15 -15 -15 -15 -16 -16 -16
-15 -15 -15 -15 -15 -15 -14 -14 -14 -14 -15 -15 -15 -15 -14 -14 -14 -14 -14 -14 -14 -14 -14 -14 -14 -14 -14 -14 -14 -14 -14 -14 -14 -14 -14 -14 -14 -14 -15 -15 -15 -16 -16
-14 -15 -15 -15 -14 -14 -14 -14 -14 -14 -14 -14 -15 -15 -15 -15 -15 -15 -15 -15 -15 -14 -14 -14 -14 -14 -14 -14 -14 -14 -15 -15 -15 -14 -14 -14 -14 -14 -15 -15 -15 -15 -15
-14 -15 -15 -14 -13 -14 -14 -14 -14 -14 -14 -14 -14 -14 -14 -15 -15 -15 -15 -15 -15 -15 -15 -15 -15 -15 -15 -15 -15 -15 -15 -15 -15 -14 -14 -14 -14 -15 -15 -15 -15 -15 -15
-14 -14 -15 -14 -15 -14 -14 -14 -14 -14 -14 -14 -14 -14 -14 -14 -14 -15 -15 -15 -15 -15 -15 -15 -15 -15 -15 -15 -15 -15 -15 -15 -15 -15 -15 -15 -15 -16 -16 -16 -16 -16 -16
-14 -14 -15 -15 -14 -14 -14 -15 -15 -15 -15 -15 -15 -15 -15 -15 -15 -15 -15 -15 -16 -16 -16 -16 -16 -16 -16 -16 -16 -16 -16 -16 -15 -15 -16 -16 -15 -15 -16 -16 -16 -16 -16
-14 -14 -15 -15 -14 -15 -15 -15 -15 -15 -15 -15 -15 -16 -15 -15 -15 -15 -16 -16 -16 -16 -16 -16 -16 -16 -16 -16 -16 -15 -15 -15 -15 -16 -16 -16 -16 -16 -16 -16 -16 -16 -16
-15 -14 -14 -15 -14 -14 -15 -15 -15 -15 -15 -15 -15 -15 -15 -15 -15 -15 -15 -15 -15 -15 -15 -16 -16 -16 -16 -16 -16 -16 -16 -16 -16 -16 -16 -16 -16 -17 -17 -17 -17 -17 -17
-14 -15 -14 -14 -15 -14 -15 -15 -15 -15 -15 -16 -16 -16 -15 -15 -16 -16 -16 -15 -15 -15 -15 -15 -15 -15 -15 -15 -15 -16 -16 -16 -16 -17 -17 -16 -16 -16 -17 -17 -17 -17 -17
-15 -15 -15 -15 -15 -15 -15 -16 -16 -16 -16 -15 -16 -16 -16 -16 -16 -16 -16 -16 -16 -16 -15 -15 -15 -15 -16 -16 -16 -16 -16 -16 -16 -16 -16 -16 -16 -16 -16 -16 -17 -17 -17
-15 -15 -15 -15 -16 -16 -16 -16 -16 -15 -15 -15 -15 -16 -16 -16 -16 -16 -16 -16 -16 -16 -16 -16 -16 -16 -16 -17 -16 -17 -16 -16 -16 -16 -16 -16 -16 -16 -16 -16 -16 -16 -16
-15 -15 -15 -15 -16 -16 -16 -16 -16 -16 -17 -17 -16 -16 -16 -16 -16 -16 -17 -17 -17 -17 -17 -17 -17 -16 -17 -17 -17 -17 -17 -17 -16 -16 -16 -16 -16 -14 -16 -16 -16 -16 -15
-16 -16 -16 -16 -16 -17 -17 -17 -17 -17 -17 -17 -17 -17 -17 -17 -17 -17 -17 -16 -16 -16 -16 -16 -17 -17 -17 -17 -17 -17 -17 -17 -17 -17 -17 -17 -17 -16 -15 -16 -16 -16 -17
-17 -16 -16 -17 -17 -17 -17 -17 -17 -17 -17 -17 -17 -17 -17 -17 -17 -17 -17 -17 -17 -17 -17 -17 -17 -17 -17 -17 -17 -17 -17 -17 -17 -17 -17 -17 -17 -17 -17 -17 -18 -18 -17
-17 -17 -17 -17 -17 -17 -17 -18 -17 -18 -18 -17 -17 -17 -17 -17 -17 -17 -17 -18 -18 -19 -19 -19 -19 -19 -19 -19 -19 -19 -18 -18 -18 -18 -18 -18 -18 -18 -18 -18 -18 -18 -18
-18 -18 -18 -18 -18 -18 -18 -18 -18 -18 -18 -18 -18 -18 -17 -17 -18 -18 -19 -19 -19 -19 -19 -19 -19 -19 -19 -19 -19 -19 -19 -19 -19 -19 -19 -19 -19 -19 -19 -19 -19 -20 -20

GFSMW_500_temp_084.txt.gz
Temp
-15 -15 -15 -15 -15 -14 -14 -13 -14 -14 -14 -14 -13 -13 -13 -12 -14 -12 -12 -12 -12 -12 -12 -12 -11 -12 -13 -13 -13 -13 -13 -13 -13 -13 -12 -13 -13 -13 -13 -13 -13 -13 -14
-14 -14 -15 -15 -15 -14 -14 -13 -14 -14 -14 -14 -13 -13 -13 -12 -13 -13 -12 -12 -12 -12 -12 -11 -12 -12 -12 -12 -13 -13 -13 -13 -13 -13 -13 -13 -13 -13 -13 -13 -13 -13 -13
-14 -14 -15 -15 -15 -14 -14 -14 -14 -14 -14 -14 -13 -13 -12 -13 -12 -12 -12 -12 -12 -12 -12 -12 -12 -12 -12 -12 -13 -13 -13 -13 -13 -13 -13 -13 -13 -14 -13 -13 -14 -14 -13
-15 -15 -15 -15 -15 -14 -13 -14 -14 -14 -13 -14 -13 -13 -13 -13 -12 -12 -12 -12 -12 -12 -12 -12 -12 -12 -12 -13 -13 -12 -13 -13 -13 -13 -13 -13 -13 -13 -13 -13 -13 -13 -14
-15 -15 -15 -16 -15 -14 -14 -14 -14 -13 -14 -13 -13 -13 -13 -13 -12 -12 -12 -12 -12 -12 -12 -12 -13 -13 -13 -13 -13 -13 -13 -13 -13 -13 -13 -13 -13 -13 -13 -13 -13 -14 -15
-15 -15 -15 -16 -14 -14 -14 -14 -14 -14 -14 -14 -13 -13 -13 -13 -13 -12 -12 -12 -12 -12 -12 -12 -12 -12 -13 -13 -13 -13 -13 -13 -13 -13 -13 -13 -13 -14 -14 -14 -14 -15 -15
-15 -14 -15 -15 -14 -14 -14 -14 -14 -14 -14 -14 -13 -13 -13 -13 -13 -13 -12 -12 -12 -12 -12 -12 -13 -13 -13 -13 -13 -13 -13 -13 -13 -14 -14 -14 -14 -14 -14 -15 -15 -15 -15
-15 -14 -15 -16 -14 -14 -14 -14 -14 -14 -14 -14 -14 -14 -13 -13 -13 -12 -12 -12 -12 -12 -13 -13 -13 -13 -13 -13 -13 -13 -13 -13 -13 -14 -14 -14 -14 -14 -15 -15 -15 -15 -15
-15 -15 -15 -16 -14 -14 -14 -15 -14 -14 -14 -14 -14 -14 -14 -13 -13 -12 -12 -12 -13 -13 -13 -13 -13 -13 -13 -13 -13 -13 -14 -14 -14 -14 -13 -13 -14 -14 -14 -14 -15 -15 -15
-15 -15 -15 -16 -14 -14 -15 -15 -14 -14 -14 -14 -14 -14 -14 -14 -13 -13 -13 -13 -13 -13 -14 -14 -14 -14 -13 -14 -14 -14 -14 -14 -14 -14 -14 -14 -14 -15 -15 -15 -15 -15 -15
-15 -15 -16 -16 -15 -14 -15 -15 -15 -15 -14 -14 -14 -14 -14 -14 -14 -13 -13 -14 -14 -13 -13 -13 -13 -14 -14 -14 -14 -15 -14 -14 -14 -14 -14 -15 -15 -15 -15 -15 -15 -15 -15
-15 -15 -15 -15 -15 -15 -15 -15 -15 -14 -14 -14 -14 -14 -14 -14 -14 -14 -14 -14 -14 -14 -14 -14 -14 -14 -14 -14 -14 -14 -14 -14 -14 -14 -14 -14 -15 -15 -15 -15 -15 -15 -15
-15 -15 -15 -15 -14 -14 -14 -14 -15 -14 -14 -14 -15 -15 -14 -14 -14 -14 -14 -14 -14 -14 -14 -14 -14 -14 -14 -14 -14 -14 -14 -14 -14 -14 -15 -15 -15 -14 -14 -14 -14 -14 -15
-15 -15 -15 -15 -14 -14 -14 -14 -14 -14 -14 -14 -15 -15 -15 -14 -14 -15 -15 -15 -14 -14 -14 -14 -14 -14 -14 -15 -15 -15 -15 -15 -15 -15 -15 -15 -15 -15 -15 -15 -15 -15 -15
-15 -15 -15 -15 -14 -14 -14 -14 -14 -15 -14 -15 -15 -15 -15 -15 -15 -15 -15 -15 -15 -15 -15 -15 -15 -15 -15 -15 -15 -15 -15 -15 -15 -15 -15 -15 -15 -15 -15 -15 -15 -15 -15
-15 -15 -15 -14 -14 -15 -14 -15 -15 -15 -15 -15 -15 -15 -16 -15 -15 -16 -16 -16 -16 -16 -16 -16 -16 -16 -16 -15 -15 -15 -15 -15 -15 -15 -16 -16 -15 -16 -16 -16 -16 -16 -16
-15 -15 -15 -15 -15 -15 -14 -14 -14 -14 -15 -15 -15 -15 -15 -15 -16 -16 -16 -16 -16 -16 -16 -16 -16 -16 -16 -15 -15 -15 -15 -16 -16 -16 -16 -16 -16 -16 -16 -16 -16 -16 -16
-15 -15 -15 -15 -15 -14 -14 -14 -14 -15 -15 -15 -15 -15 -15 -15 -15 -15 -15 -15 -15 -16 -16 -15 -16 -15 -15 -15 -15 -16 -15 -15 -15 -15 -16 -16 -16 -16 -16 -16 -16 -17 -17
-15 -15 -15 -14 -14 -14 -15 -15 -15 -15 -15 -15 -16 -16 -16 -16 -16 -16 -16 -16 -16 -16 -16 -16 -16 -16 -15 -15 -15 -15 -16 -16 -16 -16 -16 -16 -16 -16 -16 -16 -16 -16 -16
-15 -15 -15 -15 -15 -15 -15 -15 -15 -15 -15 -16 -16 -16 -16 -16 -16 -15 -16 -16 -16 -16 -16 -16 -16 -16 -16 -16 -16 -15 -16 -16 -16 -16 -16 -16 -16 -16 -15 -16 -16 -16 -16
-15 -15 -15 -15 -15 -15 -15 -15 -15 -16 -16 -16 -16 -16 -16 -15 -15 -16 -16 -16 -16 -16 -16 -16 -16 -16 -16 -16 -16 -16 -16 -16 -16 -16 -16 -16 -16 -16 -15 -16 -16 -16 -16
-15 -15 -15 -15 -15 -15 -15 -15 -16 -16 -16 -16 -16 -16 -15 -15 -15 -16 -16 -16 -16 -16 -16 -17 -17 -17 -17 -17 -17 -17 -17 -17 -17 -17 -17 -17 -17 -17 -17 -16 -16 -17 -17
-16 -16 -15 -15 -15 -15 -15 -16 -16 -16 -16 -16 -16 -16 -16 -17 -17 -17 -17 -17 -17 -17 -17 -17 -17 -17 -17 -17 -17 -17 -17 -17 -17 -17 -17 -17 -17 -17 -17 -17 -17 -17 -18
-16 -16 -16 -16 -16 -16 -16 -16 -17 -17 -17 -17 -17 -17 -17 -17 -17 -17 -17 -17 -17 -17 -17 -17 -16 -17 -16 -17 -17 -17 -18 -18 -18 -19 -18 -18 -18 -18 -18 -18 -18 -18 -18
-17 -16 -16 -16 -17 -17 -17 -17 -17 -17 -17 -18 -18 -18 -18 -18 -18 -18 -18 -18 -18 -18 -18 -18 -18 -19 -19 -20 -19 -19 -19 -19 -19 -19 -19 -19 -19 -19 -19 -19 -19 -19 -19
-18 -17 -17 -17 -17 -17 -17 -17 -18 -18 -18 -18 -18 -18 -18 -18 -18 -19 -19 -19 -19 -19 -19 -19 -19 -19 -19 -20 -19 -19 -19 -19 -20 -20 -20 -20 -20 -20 -20 -20 -20 -20 -20

GFSMW_500_temp_090.txt.gz
Temp
-12 -12 -12 -11 -12 -13 -14 -15 -15 -16 -16 -15 -15 -14 -14 -14 -14 -14 -14 -13 -13 -13 -12 -13 -13 -12 -13 -13 -12 -12 -12 -13 -12 -12 -12 -12 -12 -12 -14 -14 -14 -14 -14
-11 -11 -12 -11 -12 -13 -14 -15 -15 -15 -16 -15 -15 -14 -14 -14 -14 -13 -13 -13 -13 -12 -12 -12 -13 -12 -12 -12 -12 -12 -12 -12 -12 -13 -13 -13 -13 -13 -13 -13 -14 -14 -13
-11 -11 -11 -11 -12 -13 -14 -15 -15 -15 -16 -15 -14 -14 -14 -14 -14 -13 -13 -13 -12 -12 -12 -12 -13 -12 -12 -12 -12 -12 -12 -13 -13 -13 -13 -13 -13 -14 -13 -13 -13 -13 -13
-11 -11 -11 -12 -12 -14 -15 -15 -15 -15 -15 -15 -15 -14 -14 -14 -14 -14 -13 -13 -12 -12 -12 -12 -12 -12 -12 -12 -12 -12 -12 -13 -13 -13 -13 -13 -13 -13 -13 -13 -13 -13 -13
-11 -12 -11 -12 -13 -14 -14 -14 -14 -15 -15 -15 -14 -14 -14 -14 -14 -13 -13 -12 -12 -12 -12 -12 -12 -13 -12 -12 -13 -13 -12 -12 -13 -13 -13 -13 -13 -13 -13 -13 -13 -13 -14
-12 -11 -12 -13 -13 -14 -14 -14 -15 -15 -15 -14 -14 -14 -14 -13 -13 -13 -13 -13 -12 -12 -12 -12 -12 -13 -12 -12 -12 -13 -13 -12 -13 -13 -13 -13 -13 -13 -13 -13 -13 -13 -13
-12 -13 -14 -14 -14 -14 -14 -15 -15 -15 -15 -14 -14 -14 -14 -14 -13 -13 -13 -13 -12 -12 -12 -12 -12 -12 -13 -12 -13 -13 -13 -12 -13 -13 -13 -13 -13 -13 -13 -13 -13 -13 -13
-13 -14 -14 -14 -14 -15 -15 -15 -15 -15 -15 -14 -14 -14 -14 -14 -13 -13 -13 -13 -12 -12 -12 -12 -12 -12 -13 -13 -12 -12 -12 -13 -13 -13 -13 -13 -13 -13 -13 -13 -13 -13 -14
-14 -14 -14 -15 -15 -15 -15 -15 -15 -15 -15 -14 -14 -14 -14 -14 -14 -13 -13 -13 -13 -12 -12 -12 -12 -12 -12 -12 -12 -13 -13 -13 -13 -13 -13 -13 -13 -13 -13 -13 -14 -14 -14
-15 -15 -15 -15 -15 -15 -15 -15 -16 -15 -15 -14 -14 -15 -15 -14 -14 -13 -13 -12 -13 -12 -12 -13 -12 -13 -12 -12 -13 -13 -13 -13 -13 -13 -13 -13 -13 -14 -14 -14 -14 -14 -14
-15 -15 -15 -16 -16 -15 -15 -16 -16 -15 -15 -14 -14 -15 -15 -14 -14 -13 -13 -13 -13 -13 -13 -13 -13 -13 -13 -13 -13 -13 -13 -13 -13 -13 -14 -14 -14 -14 -14 -14 -14 -13 -14
-15 -16 -16 -15 -15 -15 -16 -16 -16 -15 -15 -14 -14 -15 -15 -15 -14 -14 -13 -14 -13 -13 -13 -13 -13 -13 -13 -13 -13 -13 -13 -14 -14 -14 -14 -15 -14 -14 -14 -13 -13 -14 -14
-15 -16 -16 -15 -15 -15 -15 -16 -16 -15 -15 -14 -14 -15 -15 -15 -15 -14 -14 -14 -14 -14 -14 -13 -13 -14 -14 -13 -13 -14 -14 -14 -14 -14 -14 -14 -14 -15 -14 -14 -14 -14 -14
-16 -16 -16 -15 -15 -14 -15 -16 -16 -15 -15 -14 -14 -15 -15 -15 -15 -15 -15 -15 -14 -14 -14 -14 -14 -14 -14 -14 -14 -14 -14 -14 -14 -14 -14 -14 -14 -14 -14 -15 -15 -15 -15
-15 -16 -16 -15 -15 -15 -15 -16 -15 -15 -15 -15 -14 -14 -15 -15 -15 -15 -15 -15 -15 -15 -15 -15 -14 -14 -14 -14 -15 -15 -14 -14 -15 -14 -14 -15 -15 -15 -15 -15 -15 -14 -14
-15 -16 -15 -15 -15 -15 -15 -15 -15 -15 -15 -15 -14 -15 -15 -15 -15 -15 -15 -15 -15 -15 -15 -15 -15 -15 -15 -15 -15 -15 -15 -15 -15 -15 -15 -15 -15 -15 -15 -15 -15 -15 -16
-16 -16 -15 -15 -15 -15 -15 -15 -15 -15 -15 -15 -15 -15 -15 -15 -15 -15 -15 -15 -15 -15 -14 -14 -15 -15 -15 -15 -15 -15 -15 -15 -15 -15 -15 -15 -15 -15 -15 -16 -16 -16 -16
-16 -16 -15 -15 -15 -15 -15 -15 -15 -15 -15 -15 -15 -14 -14 -15 -15 -15 -15 -15 -15 -15 -15 -15 -15 -15 -15 -15 -15 -15 -15 -15 -15 -15 -15 -15 -16 -16 -16 -16 -16 -16 -16
-16 -15 -15 -15 -15 -15 -15 -15 -15 -15 -14 -14 -14 -14 -14 -14 -15 -15 -15 -15 -15 -15 -15 -15 -15 -15 -16 -15 -15 -15 -15 -15 -15 -15 -15 -15 -15 -15 -16 -16 -16 -16 -16
-16 -15 -15 -15 -15 -15 -15 -15 -15 -15 -15 -14 -14 -14 -14 -14 -15 -15 -15 -15 -15 -15 -15 -15 -15 -15 -15 -15 -16 -16 -15 -15 -15 -15 -16 -16 -16 -16 -16 -16 -16 -16 -16
-16 -15 -16 -15 -16 -15 -16 -15 -15 -15 -15 -15 -14 -14 -15 -15 -15 -16 -16 -16 -15 -15 -15 -15 -15 -14 -14 -15 -16 -16 -16 -16 -16 -16 -16 -16 -16 -16 -16 -16 -16 -16 -16
-16 -16 -15 -15 -15 -15 -15 -15 -15 -15 -15 -15 -15 -15 -15 -15 -15 -15 -16 -15 -16 -16 -16 -15 -15 -15 -15 -16 -16 -16 -16 -16 -16 -16 -16 -16 -16 -16 -16 -16 -16 -16 -17
-17 -16 -17 -14 -15 -15 -14 -15 -15 -15 -15 -15 -15 -15 -15 -15 -15 -16 -16 -16 -16 -16 -16 -16 -16 -16 -16 -16 -16 -16 -17 -17 -17 -17 -17 -16 -17 -17 -17 -17 -17 -18 -18
-17 -17 -16 -16 -15 -15 -15 -14 -15 -15 -15 -15 -15 -15 -15 -15 -15 -15 -16 -15 -15 -16 -16 -16 -16 -16 -16 -16 -17 -17 -17 -17 -17 -17 -17 -17 -17 -17 -17 -18 -18 -18 -19
-18 -18 -17 -17 -16 -16 -16 -15 -15 -15 -15 -15 -15 -15 -15 -15 -15 -15 -16 -16 -15 -16 -16 -16 -17 -17 -17 -17 -17 -17 -17 -17 -17 -17 -17 -17 -17 -17 -17 -18 -18 -18 -19
-19 -19 -18 -18 -17 -17 -17 -17 -17 -17 -16 -16 -16 -16 -16 -16 -16 -16 -16 -16 -16 -17 -17 -17 -17 -17 -17 -17 -17 -17 -17 -17 -17 -17 -17 -18 -18 -19 -19 -19 -20 -20 -20

GFSMW_500_temp_093.txt.gz
Temp
-12 -12 -11 -11 -11 -11 -11 -12 -12 -12 -14 -15 -16 -15 -15 -15 -15 -14 -14 -14 -14 -13 -13 -13 -12 -12 -13 -12 -12 -12 -12 -12 -12 -12 -12 -12 -13 -12 -12 -13 -13 -13 -13
-12 -11 -12 -11 -12 -11 -11 -12 -11 -12 -15 -16 -16 -15 -15 -15 -14 -14 -14 -14 -13 -13 -13 -13 -13 -13 -13 -13 -12 -12 -12 -12 -12 -12 -12 -12 -12 -12 -13 -13 -13 -13 -14
-12 -12 -12 -12 -12 -11 -11 -12 -12 -13 -15 -16 -15 -15 -15 -15 -14 -14 -14 -14 -14 -13 -13 -13 -13 -13 -13 -12 -12 -12 -12 -12 -12 -12 -13 -12 -12 -13 -13 -13 -13 -12 -13
-12 -12 -12 -12 -12 -11 -12 -12 -13 -13 -15 -15 -15 -15 -15 -14 -14 -14 -14 -14 -14 -13 -13 -13 -12 -12 -13 -13 -13 -12 -12 -12 -12 -12 -12 -13 -13 -13 -13 -13 -13 -12 -12
-12 -12 -12 -12 -12 -11 -12 -12 -13 -14 -14 -15 -15 -15 -15 -14 -14 -14 -14 -13 -14 -13 -13 -13 -12 -12 -13 -13 -12 -12 -12 -12 -12 -12 -13 -13 -13 -13 -13 -13 -13 -13 -13
-12 -12 -12 -12 -12 -12 -12 -13 -14 -14 -14 -15 -15 -15 -15 -14 -14 -14 -14 -13 -13 -13 -13 -12 -12 -12 -13 -12 -12 -12 -12 -12 -12 -12 -13 -13 -13 -13 -13 -13 -12 -12 -12
-12 -12 -12 -12 -12 -11 -13 -13 -14 -14 -15 -15 -16 -15 -15 -14 -14 -14 -13 -13 -13 -13 -12 -12 -12 -12 -12 -12 -13 -13 -13 -12 -12 -13 -13 -13 -12 -13 -13 -13 -12 -13 -13
-12 -12 -12 -12 -12 -12 -14 -14 -14 -14 -15 -15 -15 -15 -15 -14 -14 -14 -13 -13 -13 -13 -12 -12 -12 -12 -12 -12 -12 -12 -13 -12 -13 -13 -13 -13 -13 -13 -13 -13 -13 -13 -13
-13 -12 -13 -13 -13 -14 -14 -14 -15 -15 -15 -15 -15 -15 -14 -14 -14 -14 -14 -13 -13 -13 -12 -12 -12 -12 -12 -12 -13 -13 -13 -13 -13 -13 -13 -13 -13 -13 -13 -13 -13 -13 -13
-13 -13 -13 -14 -14 -14 -15 -15 -15 -15 -15 -15 -15 -15 -14 -15 -14 -14 -14 -13 -13 -13 -13 -12 -12 -12 -12 -12 -13 -13 -13 -13 -13 -13 -13 -13 -13 -13 -13 -13 -13 -14 -14
-14 -14 -14 -14 -14 -15 -16 -16 -15 -15 -15 -15 -15 -15 -15 -15 -14 -14 -14 -13 -13 -13 -12 -12 -12 -12 -12 -13 -13 -13 -14 -13 -13 -13 -13 -13 -13 -13 -13 -14 -14 -14 -14
-14 -14 -15 -15 -15 -16 -16 -16 -15 -15 -15 -16 -15 -15 -15 -15 -15 -14 -14 -13 -14 -13 -13 -13 -13 -13 -13 -13 -12 -13 -13 -13 -13 -13 -13 -13 -13 -14 -14 -14 -14 -14 -14
-14 -15 -15 -15 -15 -16 -16 -16 -15 -15 -16 -16 -15 -15 -15 -15 -15 -14 -14 -14 -14 -14 -13 -13 -13 -13 -13 -13 -13 -13 -13 -14 -14 -13 -14 -14 -14 -14 -14 -14 -14 -14 -14
-15 -15 -16 -16 -16 -16 -15 -15 -15 -15 -16 -16 -15 -15 -15 -15 -15 -15 -14 -14 -14 -14 -14 -14 -14 -13 -13 -14 -14 -14 -14 -13 -14 -15 -15 -14 -14 -14 -15 -15 -15 -15 -15
-16 -16 -16 -16 -16 -16 -16 -15 -15 -15 -16 -15 -15 -15 -15 -15 -15 -15 -15 -15 -14 -14 -14 -14 -14 -14 -14 -14 -14 -14 -14 -14 -14 -15 -15 -15 -15 -15 -15 -15 -15 -15 -15
-16 -16 -16 -16 -16 -16 -15 -15 -15 -15 -15 -16 -15 -15 -15 -15 -15 -15 -15 -15 -15 -14 -14 -14 -14 -14 -14 -14 -14 -14 -14 -14 -14 -14 -14 -14 -15 -15 -15 -15 -15 -15 -15
-16 -16 -16 -16 -16 -16 -16 -15 -15 -15 -16 -16 -16 -15 -15 -15 -15 -15 -15 -15 -15 -15 -15 -15 -15 -15 -15 -15 -15 -15 -14 -14 -14 -15 -15 -15 -15 -15 -15 -15 -15 -15 -15
-17 -16 -16 -16 -16 -15 -15 -15 -15 -15 -16 -16 -16 -15 -15 -15 -15 -15 -15 -15 -15 -15 -15 -15 -15 -15 -15 -15 -15 -15 -15 -15 -15 -15 -15 -15 -15 -15 -15 -15 -15 -15 -15
-17 -16 -15 -16 -15 -15 -15 -15 -15 -15 -15 -15 -15 -15 -15 -15 -15 -15 -15 -15 -15 -15 -15 -15 -15 -15 -15 -15 -15 -15 -15 -15 -14 -14 -15 -15 -15 -15 -15 -15 -15 -15 -15
-17 -16 -15 -15 -15 -15 -15 -14 -14 -14 -15 -14 -15 -15 -14 -14 -14 -14 -15 -15 -15 -15 -15 -15 -15 -15 -15 -15 -15 -15 -15 -15 -15 -16 -15 -15 -15 -15 -16 -16 -15 -15 -15
-17 -16 -15 -15 -15 -14 -14 -14 -14 -14 -15 -15 -15 -15 -15 -14 -14 -14 -15 -15 -15 -15 -15 -15 -15 -15 -15 -15 -15 -16 -16 -16 -15 -16 -15 -15 -14 -15 -15 -16 -16 -16 -16
-17 -17 -16 -15 -15 -15 -14 -14 -14 -14 -13 -15 -15 -15 -15 -15 -15 -15 -14 -15 -15 -15 -15 -15 -15 -16 -16 -16 -16 -15 -15 -15 -16 -16 -16 -16 -16 -16 -16 -16 -16 -16 -16
-18 -17 -17 -17 -16 -15 -15 -13 -14 -14 -14 -14 -14 -14 -15 -15 -14 -14 -14 -15 -14 -15 -16 -15 -16 -16 -16 -15 -15 -15 -15 -15 -15 -15 -16 -16 -16 -16 -16 -16 -16 -17 -17
-18 -18 -18 -17 -17 -17 -15 -15 -15 -15 -14 -14 -14 -14 -15 -15 -15 -15 -15 -15 -15 -15 -16 -16 -16 -16 -16 -16 -16 -15 -15 -16 -16 -16 -16 -16 -16 -16 -16 -16 -16 -17 -17
-19 -19 -18 -18 -18 -18 -17 -16 -17 -14 -15 -15 -14 -14 -14 -14 -15 -14 -15 -15 -15 -15 -15 -16 -16 -15 -15 -16 -16 -16 -16 -16 -16 -17 -16 -17 -17 -17 -17 -17 -17 -17 -17
-20 -19 -19 -19 -19 -18 -18 -18 -17 -17 -16 -17 -17 -17 -16 -15 -15 -15 -15 -15 -15 -15 -15 -15 -16 -16 -16 -16 -17 -17 -17 -17 -17 -17 -17 -17 -17 -17 -17 -17 -17 -17 -17

GFSMW_500_temp_096.txt.gz
Temp
-12 -12 -11 -11 -11 -11 -11 -11 -10 -10 -12 -12 -11 -13 -14 -15 -15 -15 -15 -15 -15 -14 -14 -14 -13 -13 -12 -13 -13 -12 -12 -12 -12 -12 -12 -12 -12 -12 -12 -13 -13 -13 -14
-12 -12 -11 -11 -11 -11 -11 -11 -11 -10 -12 -12 -12 -13 -14 -15 -15 -15 -15 -15 -14 -14 -14 -14 -13 -13 -13 -12 -12 -13 -12 -12 -12 -12 -12 -12 -12 -12 -13 -13 -13 -13 -14
-13 -12 -12 -11 -11 -11 -11 -11 -11 -11 -12 -12 -13 -13 -14 -15 -15 -15 -15 -14 -14 -14 -14 -14 -13 -13 -13 -12 -13 -13 -12 -12 -12 -12 -12 -12 -12 -13 -13 -13 -13 -13 -14
-14 -12 -12 -11 -11 -11 -12 -12 -11 -12 -11 -12 -13 -13 -14 -15 -15 -15 -15 -14 -14 -14 -14 -14 -14 -13 -13 -13 -13 -13 -12 -12 -12 -13 -12 -12 -12 -13 -13 -13 -13 -13 -13
-13 -13 -12 -12 -12 -12 -11 -11 -11 -12 -11 -13 -13 -13 -14 -15 -15 -15 -14 -14 -14 -14 -14 -14 -14 -13 -13 -13 -13 -13 -13 -13 -12 -13 -12 -12 -13 -13 -13 -13 -13 -13 -13
-14 -13 -13 -13 -12 -12 -12 -11 -12 -12 -12 -13 -13 -13 -14 -15 -14 -15 -14 -14 -14 -14 -14 -13 -13 -13 -13 -13 -13 -13 -13 -13 -13 -13 -12 -13 -12 -13 -13 -13 -13 -13 -13
-14 -14 -13 -12 -12 -12 -12 -11 -12 -12 -12 -14 -14 -14 -15 -15 -15 -14 -14 -14 -14 -13 -13 -13 -13 -13 -13 -13 -13 -13 -13 -13 -13 -13 -13 -13 -12 -12 -13 -13 -13 -13 -13
-13 -13 -13 -13 -13 -12 -12 -12 -12 -12 -12 -14 -14 -14 -15 -15 -15 -14 -14 -14 -14 -14 -13 -13 -13 -13 -12 -12 -13 -13 -13 -13 -13 -13 -13 -13 -12 -12 -13 -13 -13 -13 -13
-14 -13 -13 -13 -13 -12 -12 -12 -12 -13 -14 -14 -14 -15 -15 -15 -15 -15 -14 -14 -14 -13 -13 -13 -13 -12 -12 -12 -13 -13 -12 -12 -13 -13 -13 -13 -13 -13 -13 -13 -13 -13 -13
-14 -14 -13 -13 -12 -12 -13 -12 -13 -14 -14 -15 -14 -15 -15 -15 -15 -15 -15 -14 -14 -13 -13 -12 -13 -12 -12 -12 -12 -12 -13 -13 -13 -13 -13 -13 -14 -13 -13 -13 -13 -13 -13
-15 -14 -13 -13 -12 -14 -13 -14 -14 -14 -15 -15 -15 -16 -16 -15 -15 -15 -15 -14 -14 -14 -13 -12 -13 -12 -12 -12 -12 -13 -13 -13 -13 -13 -13 -14 -14 -13 -13 -13 -13 -13 -13
-14 -14 -14 -13 -13 -15 -14 -14 -15 -15 -15 -15 -15 -16 -15 -15 -15 -15 -15 -14 -14 -13 -13 -13 -13 -13 -12 -12 -12 -13 -13 -13 -13 -13 -13 -13 -13 -13 -13 -13 -13 -14 -14
-15 -14 -14 -14 -14 -15 -15 -15 -15 -15 -16 -15 -15 -16 -15 -15 -15 -15 -15 -15 -14 -14 -13 -13 -13 -13 -13 -13 -13 -13 -13 -13 -13 -13 -14 -13 -14 -14 -14 -14 -14 -14 -14
-15 -15 -15 -15 -15 -16 -16 -16 -16 -16 -15 -15 -15 -16 -16 -16 -15 -15 -15 -15 -15 -14 -15 -14 -13 -13 -13 -13 -13 -13 -13 -13 -14 -14 -14 -14 -14 -14 -14 -14 -14 -14 -14
-15 -15 -15 -15 -15 -16 -16 -16 -16 -16 -15 -15 -15 -16 -16 -16 -15 -15 -15 -15 -15 -14 -14 -15 -14 -14 -13 -13 -13 -13 -13 -13 -14 -14 -14 -14 -14 -14 -14 -14 -14 -14 -14
-16 -16 -15 -16 -16 -16 -16 -17 -16 -15 -15 -15 -15 -16 -16 -16 -15 -15 -15 -15 -15 -15 -14 -14 -14 -15 -14 -13 -13 -13 -14 -14 -14 -14 -14 -15 -15 -15 -14 -14 -14 -15 -15
-16 -16 -16 -16 -16 -16 -16 -16 -16 -15 -15 -15 -15 -16 -16 -16 -16 -16 -15 -15 -15 -15 -15 -15 -15 -14 -14 -14 -14 -14 -14 -14 -14 -14 -14 -14 -15 -15 -15 -15 -15 -15 -15
-16 -16 -16 -16 -16 -16 -16 -16 -16 -16 -15 -15 -16 -16 -16 -16 -16 -16 -15 -15 -15 -15 -15 -15 -15 -15 -15 -15 -14 -15 -15 -15 -15 -15 -15 -15 -15 -15 -15 -15 -15 -15 -15
-17 -17 -16 -16 -16 -16 -16 -16 -16 -16 -16 -15 -16 -16 -16 -16 -16 -16 -15 -15 -15 -15 -15 -15 -15 -15 -15 -15 -15 -15 -15 -15 -15 -15 -15 -15 -15 -15 -15 -15 -15 -15 -15
-17 -17 -17 -17 -16 -16 -16 -16 -16 -16 -15 -16 -16 -16 -16 -16 -16 -15 -15 -15 -15 -15 -15 -15 -15 -15 -15 -15 -15 -15 -15 -15 -15 -15 -15 -15 -15 -15 -15 -15 -15 -15 -15
-17 -17 -17 -17 -17 -16 -16 -16 -15 -15 -15 -15 -15 -15 -15 -15 -15 -15 -15 -15 -15 -15 -15 -15 -15 -15 -15 -15 -15 -15 -15 -15 -15 -15 -15 -15 -15 -15 -16 -15 -15 -15 -16
-17 -17 -17 -17 -17 -16 -16 -15 -15 -15 -14 -13 -15 -15 -15 -15 -15 -15 -15 -15 -15 -15 -15 -15 -15 -15 -15 -15 -15 -15 -15 -15 -15 -15 -15 -15 -15 -15 -16 -16 -16 -16 -16
-19 -18 -18 -17 -17 -17 -16 -16 -15 -14 -14 -15 -14 -15 -15 -14 -15 -15 -15 -15 -15 -15 -15 -15 -15 -15 -16 -16 -14 -15 -14 -15 -16 -15 -16 -15 -15 -16 -16 -16 -16 -16 -16
-19 -19 -18 -18 -18 -18 -18 -18 -17 -16 -15 -15 -15 -15 -15 -15 -15 -16 -15 -15 -15 -15 -14 -15 -15 -14 -15 -15 -16 -16 -16 -15 -16 -16 -16 -16 -16 -16 -16 -17 -17 -17 -17
-20 -20 -20 -19 -19 -18 -18 -18 -18 -18 -17 -16 -16 -15 -15 -14 -14 -15 -15 -15 -15 -15 -15 -15 -15 -15 -15 -15 -15 -16 -16 -16 -16 -16 -16 -16 -16 -17 -17 -17 -17 -18 -18
-21 -21 -20 -20 -20 -19 -19 -19 -19 -18 -18 -18 -17 -18 -17 -17 -17 -16 -16 -16 -15 -15 -15 -15 -15 -15 -15 -15 -15 -16 -16 -16 -16 -16 -16 -16 -17 -17 -18 -18 -18 -18 -18

GFSMW_500_temp_102.txt.gz
Temp
-14 -15 -14 -14 -14 -13 -13 -14 -12 -12 -12 -11 -12 -12 -11 -11 -12 -12 -12 -12 -12 -13 -14 -15 -15 -15 -15 -15 -15 -15 -14 -14 -13 -15 -13 -12 -12 -12 -13 -12 -12 -12 -13
-15 -15 -14 -14 -14 -13 -13 -13 -12 -12 -12 -11 -12 -11 -12 -12 -12 -12 -12 -12 -13 -14 -15 -15 -15 -15 -15 -14 -15 -15 -14 -14 -14 -14 -13 -12 -13 -13 -13 -12 -12 -12 -13
-15 -15 -15 -15 -15 -14 -14 -13 -13 -12 -12 -12 -12 -12 -12 -12 -12 -12 -12 -13 -14 -14 -15 -15 -15 -15 -14 -14 -15 -15 -14 -14 -14 -14 -13 -12 -12 -12 -12 -12 -12 -12 -13
-16 -17 -17 -16 -14 -13 -13 -14 -12 -13 -12 -12 -12 -12 -13 -12 -12 -13 -13 -13 -13 -14 -14 -14 -14 -15 -14 -14 -15 -15 -14 -14 -14 -13 -13 -13 -12 -12 -12 -12 -12 -13 -14
-17 -16 -16 -16 -14 -14 -13 -13 -12 -12 -12 -12 -13 -13 -12 -12 -12 -12 -13 -13 -14 -14 -15 -15 -15 -15 -14 -14 -14 -14 -14 -13 -13 -13 -13 -13 -12 -12 -13 -13 -12 -13 -13
-17 -17 -16 -16 -15 -14 -14 -13 -13 -13 -13 -12 -13 -13 -13 -13 -12 -12 -13 -13 -14 -14 -15 -15 -15 -15 -14 -14 -14 -14 -14 -14 -13 -13 -12 -13 -13 -12 -12 -13 -13 -13 -13
-17 -17 -16 -16 -15 -15 -15 -14 -14 -13 -13 -12 -12 -13 -13 -13 -12 -13 -13 -14 -14 -15 -15 -15 -15 -14 -14 -14 -14 -14 -14 -14 -14 -13 -13 -13 -13 -13 -13 -13 -13 -13 -13
-16 -17 -17 -17 -16 -15 -15 -14 -13 -13 -13 -13 -13 -12 -13 -13 -13 -13 -13 -14 -15 -15 -15 -15 -14 -14 -14 -14 -14 -13 -13 -14 -13 -13 -13 -13 -13 -13 -13 -13 -13 -13 -13
-16 -16 -18 -18 -17 -16 -15 -14 -14 -13 -13 -13 -12 -12 -13 -13 -13 -13 -14 -15 -15 -16 -16 -15 -14 -14 -14 -14 -14 -13 -13 -13 -14 -13 -13 -12 -13 -13 -13 -13 -13 -13 -13
-16 -17 -18 -17 -17 -16 -16 -15 -14 -14 -14 -14 -13 -13 -13 -13 -13 -14 -14 -15 -16 -16 -16 -15 -14 -14 -14 -14 -14 -13 -13 -13 -13 -13 -13 -13 -13 -13 -13 -13 -13 -13 -13
-17 -17 -17 -18 -17 -17 -16 -15 -15 -14 -14 -14 -14 -14 -13 -13 -14 -15 -15 -16 -16 -16 -16 -15 -15 -15 -15 -14 -14 -13 -14 -14 -13 -13 -13 -13 -13 -13 -13 -13 -13 -13 -13
-17 -17 -17 -16 -16 -17 -17 -15 -15 -14 -14 -14 -14 -14 -14 -14 -15 -15 -15 -15 -15 -16 -15 -15 -15 -15 -14 -14 -14 -14 -14 -13 -13 -13 -13 -13 -13 -13 -13 -13 -13 -13 -13
-16 -17 -18 -17 -17 -17 -16 -16 -15 -14 -14 -14 -14 -14 -14 -14 -15 -15 -15 -15 -16 -15 -15 -15 -15 -15 -15 -14 -14 -13 -13 -13 -13 -13 -13 -13 -13 -13 -13 -13 -13 -14 -13
-17 -18 -18 -17 -17 -17 -16 -15 -15 -14 -14 -14 -14 -15 -15 -15 -16 -15 -15 -16 -16 -15 -15 -15 -15 -15 -15 -14 -14 -14 -13 -13 -13 -13 -13 -13 -13 -13 -13 -13 -14 -14 -14
-18 -17 -18 -17 -17 -16 -16 -15 -15 -15 -15 -15 -15 -15 -15 -15 -15 -15 -15 -16 -16 -15 -15 -15 -15 -15 -14 -14 -13 -14 -13 -13 -13 -13 -13 -13 -13 -13 -13 -14 -14 -14 -14
-17 -17 -17 -16 -16 -15 -16 -15 -15 -15 -15 -15 -15 -15 -16 -16 -15 -15 -15 -16 -16 -15 -15 -15 -16 -15 -15 -15 -14 -13 -14 -13 -13 -13 -13 -13 -13 -13 -14 -14 -14 -14 -14
-17 -17 -17 -17 -17 -16 -16 -16 -16 -16 -16 -16 -16 -16 -16 -16 -15 -15 -16 -16 -16 -15 -15 -15 -16 -15 -15 -15 -14 -14 -14 -14 -14 -14 -14 -14 -14 -14 -14 -14 -14 -14 -14
-18 -17 -17 -16 -17 -16 -16 -16 -16 -16 -16 -16 -16 -16 -17 -16 -16 -16 -16 -16 -16 -16 -16 -15 -16 -15 -15 -15 -15 -15 -14 -14 -14 -14 -14 -14 -14 -14 -14 -14 -14 -14 -15
-18 -18 -17 -17 -17 -17 -17 -17 -17 -17 -16 -17 -17 -17 -17 -16 -17 -16 -16 -16 -17 -16 -16 -15 -16 -16 -15 -15 -15 -15 -15 -15 -14 -14 -14 -14 -14 -14 -14 -14 -14 -15 -15
-18 -18 -18 -17 -17 -17 -17 -17 -16 -17 -17 -17 -17 -17 -17 -17 -16 -16 -16 -16 -17 -16 -16 -16 -16 -16 -16 -15 -15 -15 -15 -15 -15 -15 -14 -14 -14 -14 -15 -14 -15 -15 -15
-19 -18 -18 -18 -18 -17 -17 -17 -17 -17 -17 -17 -17 -17 -17 -17 -15 -16 -17 -16 -17 -17 -16 -16 -16 -16 -16 -16 -16 -16 -16 -15 -15 -15 -15 -15 -15 -16 -15 -16 -15 -15 -15
-18 -18 -18 -18 -18 -18 -18 -17 -17 -17 -17 -17 -17 -17 -16 -16 -15 -16 -17 -16 -16 -16 -16 -16 -16 -16 -16 -16 -16 -16 -16 -16 -16 -15 -15 -15 -15 -15 -15 -16 -16 -16 -16
-19 -19 -19 -18 -18 -18 -18 -19 -18 -18 -17 -17 -17 -17 -17 -16 -17 -16 -15 -16 -16 -16 -16 -16 -16 -15 -16 -16 -16 -16 -16 -16 -16 -16 -16 -16 -16 -16 -16 -16 -16 -16 -16
-20 -20 -20 -19 -19 -19 -19 -19 -19 -18 -18 -18 -18 -17 -17 -17 -16 -16 -16 -16 -16 -16 -17 -16 -16 -15 -15 -16 -16 -16 -16 -16 -16 -16 -17 -17 -17 -17 -16 -16 -16 -16 -16
-21 -21 -21 -21 -21 -20 -20 -20 -20 -19 -19 -19 -18 -18 -18 -19 -18 -17 -17 -16 -16 -16 -17 -17 -16 -16 -16 -16 -16 -16 -16 -16 -16 -16 -16 -16 -17 -17 -17 -17 -16 -16 -16
-22 -22 -22 -22 -22 -22 -21 -21 -21 -21 -20 -20 -20 -19 -19 -19 -19 -19 -19 -18 -17 -17 -17 -17 -17 -16 -17 -16 -16 -16 -16 -16 -16 -16 -16 -16 -16 -16 -16 -16 -16 -16 -16

GFSMW_500_temp_105.txt.gz
Temp
-15 -15 -14 -15 -15 -15 -15 -15 -14 -14 -13 -13 -14 -13 -12 -13 -13 -13 -13 -13 -12 -12 -13 -13 -13 -14 -15 -15 -15 -15 -15 -15 -15 -14 -14 -14 -13 -14 -13 -13 -13 -13 -13
-16 -16 -15 -15 -15 -16 -15 -15 -14 -14 -13 -13 -14 -13 -13 -13 -14 -14 -13 -13 -12 -12 -13 -13 -14 -14 -14 -15 -15 -15 -15 -15 -15 -14 -14 -14 -13 -12 -13 -12 -13 -13 -13
-16 -17 -17 -16 -16 -16 -15 -14 -14 -14 -13 -13 -14 -13 -13 -13 -13 -13 -12 -13 -13 -13 -13 -13 -14 -14 -14 -15 -15 -15 -15 -15 -15 -14 -14 -14 -14 -13 -13 -13 -13 -13 -12
-18 -17 -17 -16 -16 -16 -15 -15 -15 -14 -13 -14 -14 -13 -13 -13 -13 -14 -14 -14 -13 -13 -13 -13 -14 -14 -14 -15 -15 -15 -15 -15 -15 -14 -14 -14 -14 -13 -13 -13 -13 -13 -13
-18 -18 -17 -17 -16 -16 -15 -15 -15 -15 -14 -13 -13 -13 -13 -14 -14 -14 -13 -13 -13 -13 -13 -13 -13 -14 -15 -15 -15 -14 -15 -15 -15 -14 -14 -14 -13 -13 -13 -13 -13 -13 -13
-17 -17 -17 -17 -16 -16 -17 -16 -16 -15 -15 -14 -14 -13 -13 -14 -14 -14 -13 -13 -13 -13 -13 -13 -14 -14 -15 -15 -15 -14 -14 -14 -14 -14 -14 -14 -14 -13 -13 -13 -13 -13 -13
-17 -17 -17 -18 -17 -17 -16 -17 -16 -15 -15 -15 -14 -14 -14 -14 -14 -14 -13 -13 -13 -13 -13 -13 -14 -14 -14 -15 -15 -14 -14 -14 -14 -14 -14 -14 -13 -13 -13 -13 -13 -13 -13
-18 -18 -18 -17 -17 -17 -18 -18 -17 -15 -14 -15 -14 -14 -14 -13 -14 -14 -13 -13 -13 -13 -13 -14 -14 -15 -15 -15 -15 -14 -14 -14 -14 -14 -14 -14 -13 -13 -13 -13 -13 -12 -13
-17 -18 -17 -17 -17 -18 -18 -17 -17 -15 -15 -15 -14 -14 -14 -14 -14 -14 -14 -13 -13 -13 -14 -14 -14 -15 -15 -15 -14 -14 -14 -14 -14 -14 -14 -14 -14 -14 -13 -13 -13 -13 -13
-17 -17 -17 -17 -16 -17 -17 -16 -16 -16 -15 -15 -15 -15 -15 -14 -14 -14 -14 -13 -13 -14 -14 -14 -15 -15 -15 -15 -15 -14 -14 -14 -14 -13 -13 -13 -13 -14 -13 -13 -13 -13 -13
-18 -16 -16 -17 -17 -17 -17 -16 -16 -15 -15 -15 -14 -15 -15 -15 -15 -14 -14 -13 -14 -14 -14 -15 -15 -15 -15 -15 -15 -14 -14 -14 -14 -13 -13 -13 -13 -13 -13 -13 -13 -13 -13
-17 -16 -17 -17 -17 -17 -17 -17 -17 -15 -15 -15 -15 -15 -14 -14 -14 -14 -14 -14 -14 -15 -15 -15 -15 -16 -15 -15 -15 -15 -14 -14 -14 -13 -13 -13 -13 -13 -14 -13 -13 -13 -13
-17 -17 -17 -17 -17 -17 -17 -18 -16 -15 -15 -15 -15 -15 -15 -15 -15 -14 -14 -14 -14 -15 -15 -15 -16 -16 -16 -15 -15 -15 -14 -14 -14 -14 -14 -13 -13 -13 -13 -13 -13 -13 -13
-17 -17 -17 -17 -18 -18 -17 -18 -17 -15 -15 -15 -15 -15 -14 -15 -14 -14 -15 -15 -15 -15 -15 -15 -16 -15 -15 -15 -15 -14 -14 -14 -14 -13 -13 -13 -13 -13 -13 -13 -13 -13 -13
-18 -18 -18 -18 -18 -18 -18 -17 -17 -17 -16 -16 -15 -15 -15 -15 -14 -15 -15 -15 -16 -16 -15 -16 -16 -15 -15 -15 -15 -15 -14 -14 -14 -14 -13 -13 -13 -14 -13 -13 -13 -13 -13
-18 -18 -18 -18 -18 -18 -18 -17 -17 -17 -16 -16 -14 -15 -15 -15 -15 -15 -15 -15 -15 -15 -15 -16 -15 -15 -15 -15 -15 -15 -15 -14 -14 -13 -14 -13 -13 -13 -13 -13 -14 -13 -13
-18 -17 -17 -18 -17 -18 -17 -17 -17 -16 -16 -15 -15 -15 -15 -15 -15 -15 -16 -16 -15 -16 -15 -15 -15 -15 -15 -15 -15 -16 -16 -14 -14 -14 -14 -14 -13 -13 -14 -13 -14 -13 -14
-18 -17 -17 -17 -17 -17 -17 -17 -16 -17 -16 -16 -16 -15 -15 -15 -16 -16 -16 -16 -16 -16 -16 -16 -16 -16 -15 -15 -15 -16 -17 -15 -14 -14 -14 -14 -14 -14 -14 -14 -14 -14 -14
-18 -18 -18 -17 -17 -17 -17 -17 -17 -17 -17 -16 -16 -16 -16 -15 -16 -16 -16 -16 -16 -16 -16 -16 -16 -17 -16 -15 -15 -16 -17 -16 -15 -15 -14 -14 -14 -14 -14 -14 -14 -14 -14
-19 -18 -18 -18 -17 -17 -17 -17 -17 -17 -17 -16 -16 -16 -16 -16 -16 -16 -16 -16 -16 -16 -16 -17 -16 -17 -16 -16 -15 -16 -16 -16 -16 -16 -15 -15 -15 -14 -14 -14 -15 -15 -14
-19 -19 -18 -18 -18 -18 -18 -17 -17 -17 -17 -16 -16 -16 -17 -17 -17 -16 -16 -16 -16 -17 -17 -16 -16 -16 -17 -16 -16 -16 -15 -16 -16 -16 -16 -16 -17 -15 -15 -15 -15 -15 -15
-19 -19 -19 -18 -18 -18 -18 -17 -17 -17 -17 -17 -16 -16 -17 -17 -17 -17 -17 -17 -17 -16 -16 -16 -16 -16 -16 -17 -16 -16 -16 -16 -16 -16 -16 -16 -16 -16 -16 -16 -16 -16 -15
-19 -19 -19 -19 -19 -18 -18 -18 -18 -18 -18 -18 -17 -17 -17 -17 -17 -17 -17 -16 -17 -16 -17 -16 -16 -17 -17 -16 -17 -16 -16 -16 -16 -16 -16 -16 -16 -16 -16 -16 -16 -16 -16
-21 -20 -20 -20 -20 -20 -19 -19 -19 -19 -19 -19 -19 -18 -18 -18 -17 -17 -17 -17 -17 -17 -17 -16 -16 -16 -16 -16 -17 -17 -16 -16 -16 -16 -16 -16 -16 -16 -16 -16 -16 -17 -17
-22 -21 -21 -21 -21 -21 -21 -20 -20 -20 -20 -19 -19 -19 -19 -19 -18 -18 -18 -17 -17 -17 -17 -17 -16 -16 -17 -16 -16 -17 -16 -16 -16 -16 -16 -16 -16 -16 -17 -17 -17 -17 -17
-22 -22 -22 -22 -22 -22 -22 -22 -21 -22 -21 -21 -21 -21 -20 -20 -20 -20 -19 -19 -19 -19 -19 -18 -18 -17 -17 -17 -17 -17 -17 -17 -17 -17 -16 -16 -17 -17 -17 -17 -17 -17 -17

GFSMW_500_temp_111.txt.gz
Temp
-14 -14 -15 -15 -15 -15 -15 -15 -14 -14 -14 -13 -13 -13 -12 -14 -14 -14 -15 -16 -16 -15 -15 -15 -15 -15 -15 -15 -14 -13 -13 -13 -13 -14 -14 -14 -14 -14 -15 -15 -15 -14 -14
-15 -14 -14 -15 -15 -15 -15 -15 -15 -15 -14 -14 -13 -13 -13 -14 -14 -15 -15 -15 -16 -15 -15 -15 -15 -15 -15 -15 -15 -14 -14 -13 -13 -14 -14 -14 -14 -15 -15 -15 -14 -14 -13
-14 -14 -14 -14 -15 -15 -15 -15 -15 -15 -15 -15 -14 -13 -13 -13 -14 -13 -14 -15 -16 -15 -16 -16 -15 -15 -15 -15 -15 -14 -14 -13 -14 -14 -14 -14 -14 -14 -15 -14 -14 -14 -13
-14 -14 -14 -14 -14 -14 -14 -14 -15 -15 -16 -16 -15 -14 -13 -13 -13 -14 -15 -15 -15 -15 -16 -15 -15 -15 -15 -15 -15 -15 -15 -14 -14 -14 -14 -14 -14 -14 -14 -15 -14 -14 -13
-14 -14 -14 -14 -15 -15 -16 -16 -17 -16 -17 -16 -16 -14 -14 -13 -14 -15 -15 -15 -16 -15 -15 -15 -15 -15 -15 -14 -14 -15 -14 -14 -14 -14 -14 -14 -14 -14 -14 -14 -15 -14 -14
-16 -17 -18 -19 -19 -19 -18 -18 -18 -18 -18 -18 -16 -15 -14 -14 -15 -15 -15 -15 -15 -15 -15 -16 -15 -14 -14 -14 -14 -15 -14 -14 -14 -14 -14 -15 -15 -14 -14 -14 -14 -14 -14
-20 -19 -19 -19 -19 -19 -20 -20 -19 -19 -19 -18 -17 -16 -15 -15 -15 -15 -15 -15 -15 -15 -15 -15 -15 -14 -15 -15 -15 -15 -14 -14 -14 -14 -15 -15 -15 -15 -14 -14 -14 -14 -13
-19 -19 -20 -19 -19 -19 -19 -19 -19 -19 -19 -18 -17 -17 -16 -16 -16 -15 -15 -15 -15 -15 -15 -16 -15 -15 -15 -14 -14 -14 -14 -14 -14 -14 -15 -15 -15 -15 -14 -14 -14 -14 -13
-19 -19 -19 -19 -18 -18 -19 -19 -19 -19 -18 -18 -18 -17 -17 -17 -16 -15 -15 -15 -15 -15 -16 -15 -15 -15 -15 -15 -15 -15 -14 -14 -14 -15 -15 -15 -15 -15 -14 -14 -14 -14 -14
-18 -18 -18 -17 -17 -18 -18 -18 -18 -18 -19 -18 -18 -18 -18 -17 -16 -16 -15 -15 -16 -16 -15 -15 -14 -15 -15 -15 -14 -14 -14 -14 -14 -15 -15 -15 -15 -14 -14 -14 -14 -14 -14
-19 -18 -18 -18 -18 -17 -17 -17 -18 -18 -18 -18 -17 -17 -17 -17 -17 -16 -16 -16 -16 -16 -16 -15 -15 -15 -15 -15 -14 -14 -14 -14 -15 -15 -15 -15 -15 -15 -15 -14 -14 -14 -14
-19 -18 -18 -17 -17 -17 -16 -17 -17 -17 -18 -17 -18 -17 -17 -17 -17 -17 -17 -16 -16 -16 -15 -15 -15 -15 -15 -15 -14 -15 -14 -15 -15 -15 -15 -15 -15 -15 -15 -15 -15 -14 -14
-18 -18 -18 -18 -16 -17 -17 -17 -17 -17 -17 -17 -17 -17 -17 -17 -17 -17 -16 -16 -16 -16 -16 -16 -16 -15 -15 -15 -15 -15 -15 -15 -15 -15 -15 -15 -15 -15 -15 -15 -15 -14 -14
-19 -19 -18 -17 -17 -17 -16 -16 -17 -17 -17 -17 -17 -17 -17 -16 -16 -16 -16 -16 -16 -16 -15 -16 -15 -15 -15 -15 -15 -15 -15 -15 -15 -15 -15 -15 -16 -16 -15 -15 -15 -14 -14
-19 -18 -18 -18 -18 -18 -18 -18 -18 -17 -16 -17 -16 -17 -16 -16 -16 -16 -16 -16 -16 -15 -15 -15 -15 -15 -15 -15 -15 -15 -15 -15 -15 -15 -15 -15 -16 -16 -15 -15 -14 -14 -14
-20 -20 -20 -19 -19 -19 -19 -18 -18 -17 -17 -16 -17 -17 -16 -16 -16 -16 -16 -16 -16 -15 -15 -15 -15 -14 -15 -15 -15 -15 -15 -15 -15 -15 -15 -15 -16 -16 -15 -14 -13 -13 -13
-19 -20 -19 -18 -18 -18 -18 -18 -18 -18 -18 -18 -17 -16 -16 -15 -16 -15 -15 -15 -15 -15 -15 -15 -15 -15 -15 -15 -15 -16 -15 -15 -15 -15 -16 -16 -16 -16 -15 -15 -14 -14 -14
-19 -19 -18 -18 -18 -18 -18 -18 -18 -18 -18 -18 -17 -16 -16 -15 -16 -14 -15 -15 -15 -15 -15 -15 -15 -16 -16 -16 -15 -16 -16 -16 -16 -16 -16 -16 -16 -16 -15 -14 -14 -14 -14
-19 -19 -19 -19 -18 -18 -18 -19 -19 -19 -19 -18 -18 -18 -16 -16 -16 -16 -15 -15 -15 -16 -16 -16 -16 -16 -16 -16 -16 -16 -16 -16 -15 -15 -16 -16 -16 -16 -15 -15 -14 -14 -14
-19 -19 -19 -18 -19 -18 -18 -18 -19 -18 -19 -18 -19 -19 -18 -18 -18 -16 -16 -16 -16 -16 -17 -16 -16 -16 -16 -16 -16 -16 -16 -16 -15 -15 -15 -16 -16 -16 -16 -15 -15 -15 -14
-19 -19 -19 -19 -19 -19 -19 -18 -18 -18 -18 -18 -18 -19 -19 -19 -18 -18 -17 -18 -17 -17 -17 -17 -17 -17 -17 -17 -17 -17 -16 -16 -16 -16 -15 -15 -16 -16 -16 -16 -16 -16 -15
-20 -19 -19 -19 -19 -19 -19 -19 -19 -19 -18 -18 -18 -18 -18 -18 -18 -17 -17 -17 -17 -17 -17 -17 -17 -17 -17 -17 -17 -17 -17 -17 -17 -16 -16 -15 -16 -16 -16 -16 -16 -16 -16
-21 -21 -20 -20 -20 -20 -20 -20 -20 -19 -19 -19 -19 -19 -19 -19 -19 -18 -18 -18 -18 -18 -18 -18 -18 -18 -17 -17 -17 -17 -17 -17 -17 -17 -17 -16 -17 -17 -16 -16 -17 -17 -17
-22 -22 -22 -22 -21 -21 -21 -22 -22 -21 -21 -21 -21 -21 -21 -21 -21 -20 -20 -20 -19 -19 -19 -19 -19 -19 -18 -18 -17 -17 -17 -17 -17 -17 -17 -17 -16 -16 -16 -17 -16 -17 -17
-22 -22 -23 -22 -22 -22 -22 -22 -22 -22 -22 -22 -22 -21 -21 -21 -21 -21 -21 -21 -21 -21 -20 -20 -20 -19 -19 -19 -19 -18 -18 -18 -18 -18 -17 -18 -17 -17 -17 -17 -17 -17 -17
-23 -23 -23 -23 -23 -22 -22 -22 -22 -22 -22 -22 -22 -22 -22 -22 -22 -22 -22 -21 -21 -21 -21 -21 -21 -21 -21 -20 -20 -20 -20 -19 -18 -18 -17 -17 -18 -18 -17 -17 -17 -17 -17

GFSMW_500_temp_114.txt.gz
Temp
-14 -15 -14 -14 -14 -14 -14 -14 -14 -14 -14 -14 -14 -14 -14 -14 -15 -14 -14 -14 -14 -14 -15 -15 -14 -15 -15 -15 -15 -15 -14 -14 -14 -14 -14 -14 -14 -14 -14 -15 -15 -14 -15
-15 -15 -15 -15 -15 -15 -15 -15 -15 -15 -15 -14 -14 -14 -14 -14 -14 -14 -13 -14 -15 -15 -15 -16 -15 -15 -15 -15 -15 -15 -15 -14 -14 -14 -14 -14 -14 -15 -14 -15 -15 -14 -14
-15 -15 -15 -15 -15 -15 -15 -15 -15 -15 -15 -15 -15 -15 -14 -14 -13 -13 -13 -13 -14 -14 -15 -15 -15 -16 -16 -15 -15 -15 -14 -14 -14 -14 -14 -14 -15 -14 -15 -15 -15 -14 -14
-15 -15 -15 -15 -15 -15 -15 -15 -15 -15 -15 -15 -15 -15 -15 -14 -14 -14 -13 -14 -15 -15 -15 -15 -15 -16 -16 -15 -15 -15 -15 -14 -14 -14 -14 -14 -14 -15 -14 -15 -15 -14 -14
-15 -15 -15 -14 -14 -14 -14 -14 -14 -14 -15 -15 -15 -15 -15 -14 -14 -14 -14 -13 -14 -14 -14 -15 -15 -15 -15 -15 -15 -15 -15 -14 -14 -14 -14 -14 -15 -15 -15 -14 -15 -15 -14
-15 -15 -15 -14 -15 -15 -15 -14 -14 -14 -14 -14 -15 -15 -15 -15 -15 -14 -14 -14 -13 -14 -14 -14 -15 -15 -15 -15 -15 -15 -15 -14 -14 -14 -14 -14 -15 -15 -14 -14 -14 -14 -14
-15 -15 -16 -16 -17 -18 -18 -18 -18 -18 -18 -18 -17 -16 -16 -16 -16 -15 -15 -14 -14 -14 -14 -14 -14 -15 -15 -15 -15 -15 -15 -14 -14 -14 -14 -14 -14 -14 -15 -14 -14 -14 -14
-18 -18 -19 -18 -19 -18 -18 -18 -19 -18 -19 -19 -19 -19 -19 -18 -17 -16 -15 -14 -15 -15 -14 -15 -15 -15 -15 -15 -15 -15 -15 -14 -14 -14 -14 -14 -14 -14 -15 -15 -15 -14 -14
-19 -18 -18 -18 -18 -18 -17 -18 -18 -18 -19 -19 -19 -20 -20 -20 -18 -17 -16 -16 -16 -15 -15 -15 -15 -15 -15 -15 -15 -15 -15 -15 -14 -14 -14 -14 -15 -14 -15 -15 -15 -14 -14
-18 -17 -18 -18 -17 -17 -17 -18 -18 -18 -19 -19 -19 -20 -20 -19 -19 -18 -17 -17 -16 -16 -16 -15 -15 -15 -14 -15 -15 -15 -15 -15 -15 -14 -14 -14 -15 -15 -15 -15 -15 -14 -14
-18 -18 -18 -18 -17 -17 -17 -18 -17 -18 -19 -19 -19 -19 -19 -19 -19 -18 -18 -17 -17 -16 -16 -15 -15 -15 -15 -15 -15 -16 -15 -15 -15 -14 -14 -15 -14 -15 -15 -15 -15 -15 -14
-18 -18 -18 -18 -17 -17 -17 -17 -17 -17 -18 -18 -19 -19 -19 -19 -19 -19 -18 -17 -17 -16 -16 -16 -15 -15 -15 -15 -16 -15 -15 -15 -15 -15 -14 -14 -15 -15 -15 -15 -15 -15 -15
-18 -18 -18 -18 -17 -17 -17 -17 -17 -17 -17 -18 -18 -18 -18 -18 -18 -17 -17 -17 -17 -17 -17 -16 -16 -16 -15 -15 -16 -15 -15 -15 -15 -15 -15 -15 -15 -15 -15 -15 -15 -15 -15
-19 -18 -18 -18 -17 -18 -17 -17 -17 -17 -17 -17 -17 -17 -17 -18 -18 -17 -17 -17 -17 -16 -16 -16 -16 -16 -16 -16 -15 -15 -15 -15 -15 -15 -15 -15 -15 -15 -15 -15 -15 -15 -15
-19 -18 -18 -18 -19 -19 -18 -18 -19 -17 -17 -17 -17 -17 -17 -17 -17 -17 -17 -17 -17 -16 -16 -16 -16 -16 -16 -17 -16 -16 -15 -15 -15 -15 -15 -15 -15 -15 -15 -15 -15 -15 -15
-20 -20 -19 -18 -18 -18 -18 -18 -18 -18 -18 -17 -16 -16 -16 -16 -16 -16 -16 -16 -16 -16 -16 -16 -16 -16 -16 -16 -15 -15 -15 -15 -15 -15 -15 -15 -15 -16 -15 -15 -15 -15 -15
-21 -20 -19 -19 -18 -18 -18 -18 -19 -18 -18 -17 -17 -16 -16 -15 -16 -16 -15 -15 -16 -15 -15 -16 -16 -16 -16 -16 -15 -15 -15 -15 -15 -15 -15 -16 -16 -16 -16 -16 -15 -15 -15
-19 -19 -19 -19 -18 -18 -18 -19 -19 -18 -18 -18 -17 -17 -16 -16 -16 -16 -15 -15 -14 -15 -15 -15 -15 -16 -15 -15 -15 -15 -15 -16 -16 -16 -16 -16 -16 -15 -15 -15 -15 -15 -15
-19 -19 -19 -19 -19 -18 -18 -18 -19 -19 -19 -19 -18 -17 -17 -17 -16 -16 -16 -16 -15 -15 -16 -16 -15 -16 -15 -15 -16 -17 -16 -16 -15 -15 -16 -16 -16 -15 -15 -14 -15 -16 -15
-19 -19 -19 -19 -19 -19 -19 -18 -19 -19 -19 -19 -18 -18 -18 -17 -17 -17 -16 -16 -15 -16 -15 -16 -16 -16 -16 -16 -16 -16 -16 -16 -16 -16 -16 -16 -16 -16 -15 -15 -15 -16 -15
-19 -19 -19 -19 -19 -19 -19 -19 -19 -19 -19 -19 -19 -19 -19 -18 -18 -18 -18 -18 -17 -17 -16 -16 -16 -17 -16 -16 -15 -16 -16 -16 -16 -16 -16 -16 -16 -16 -16 -16 -16 -16 -15
-20 -19 -19 -19 -19 -19 -19 -20 -19 -19 -19 -19 -19 -19 -19 -19 -19 -20 -19 -19 -19 -18 -18 -18 -17 -17 -17 -17 -17 -17 -17 -17 -17 -16 -16 -16 -16 -16 -16 -16 -16 -16 -16
-21 -20 -20 -20 -20 -20 -20 -21 -21 -21 -21 -20 -20 -20 -20 -20 -19 -19 -19 -18 -19 -19 -19 -18 -18 -18 -17 -17 -17 -18 -17 -17 -17 -17 -17 -17 -17 -16 -16 -16 -16 -16 -16
-22 -21 -22 -22 -22 -22 -22 -22 -22 -22 -22 -22 -21 -21 -21 -21 -21 -21 -21 -20 -20 -20 -19 -19 -19 -19 -18 -18 -18 -18 -18 -18 -18 -18 -17 -18 -17 -17 -16 -17 -17 -16 -16
-22 -22 -23 -23 -23 -22 -22 -22 -22 -22 -22 -22 -22 -22 -22 -22 -21 -21 -21 -21 -21 -21 -21 -21 -20 -20 -20 -20 -20 -19 -19 -19 -19 -18 -18 -18 -18 -17 -17 -17 -17 -17 -17
-23 -23 -23 -23 -23 -23 -23 -23 -23 -23 -23 -23 -22 -22 -22 -22 -22 -22 -22 -22 -22 -22 -22 -22 -21 -21 -21 -21 -21 -21 -21 -20 -20 -20 -19 -19 -19 -18 -18 -18 -18 -18 -17

GFSMW_500_temp_117.txt.gz
Temp
-14 -14 -14 -14 -14 -14 -14 -14 -14 -14 -13 -14 -14 -14 -14 -15 -14 -15 -14 -14 -15 -15 -15 -15 -15 -15 -16 -15 -15 -14 -15 -14 -14 -14 -14 -14 -13 -14 -15 -15 -14 -14 -14
-15 -15 -14 -14 -14 -14 -14 -14 -15 -14 -14 -14 -14 -14 -14 -14 -14 -15 -14 -14 -14 -14 -15 -16 -15 -16 -16 -16 -15 -15 -15 -14 -14 -14 -14 -14 -13 -14 -15 -15 -15 -15 -14
-15 -15 -15 -15 -14 -14 -15 -15 -15 -15 -15 -15 -15 -15 -15 -14 -14 -14 -14 -14 -14 -13 -14 -15 -16 -15 -16 -16 -15 -16 -15 -15 -15 -14 -14 -14 -13 -14 -15 -15 -15 -15 -15
-15 -15 -15 -15 -15 -15 -15 -15 -15 -15 -15 -15 -15 -15 -15 -15 -15 -14 -14 -14 -14 -13 -14 -14 -15 -15 -16 -16 -16 -16 -16 -16 -15 -15 -14 -14 -14 -13 -13 -14 -15 -16 -15
-16 -16 -16 -16 -16 -16 -15 -15 -15 -15 -15 -15 -15 -15 -15 -15 -15 -14 -14 -14 -14 -14 -14 -13 -14 -14 -16 -16 -16 -16 -16 -16 -16 -15 -15 -14 -14 -14 -13 -13 -14 -15 -16
-17 -16 -16 -16 -16 -16 -15 -15 -15 -15 -15 -15 -15 -15 -15 -15 -15 -14 -14 -14 -14 -14 -14 -13 -13 -14 -15 -16 -16 -16 -16 -16 -16 -15 -14 -14 -14 -14 -14 -14 -14 -14 -14
-16 -16 -16 -15 -15 -15 -14 -14 -14 -14 -14 -14 -14 -14 -14 -14 -14 -14 -14 -14 -14 -14 -14 -14 -13 -13 -14 -16 -16 -16 -16 -16 -15 -14 -15 -14 -14 -14 -14 -14 -14 -14 -15
-16 -16 -16 -16 -15 -15 -15 -15 -16 -16 -17 -17 -17 -17 -17 -16 -15 -14 -14 -14 -14 -15 -14 -14 -14 -13 -15 -15 -16 -16 -16 -15 -15 -14 -15 -14 -14 -14 -14 -14 -14 -14 -14
-17 -17 -18 -18 -18 -18 -17 -17 -18 -18 -18 -18 -18 -18 -18 -18 -18 -17 -16 -16 -15 -14 -15 -15 -14 -14 -15 -15 -16 -16 -15 -15 -15 -14 -14 -14 -15 -14 -14 -14 -14 -14 -14
-20 -19 -19 -18 -17 -17 -17 -16 -17 -17 -17 -18 -18 -18 -18 -18 -19 -19 -19 -19 -18 -16 -15 -15 -15 -14 -15 -15 -16 -15 -15 -15 -15 -15 -15 -15 -14 -14 -14 -14 -14 -14 -14
-19 -19 -18 -18 -17 -17 -17 -16 -17 -17 -17 -18 -18 -18 -18 -18 -19 -20 -21 -21 -19 -18 -17 -16 -16 -15 -15 -15 -15 -15 -15 -15 -15 -15 -15 -14 -15 -15 -14 -14 -14 -14 -14
-19 -19 -18 -18 -18 -18 -17 -16 -16 -17 -17 -17 -18 -18 -19 -19 -20 -21 -21 -20 -19 -18 -18 -17 -17 -16 -15 -15 -15 -15 -16 -16 -16 -15 -15 -15 -15 -15 -14 -14 -14 -14 -14
-19 -19 -18 -18 -18 -18 -17 -17 -16 -17 -17 -16 -17 -18 -19 -19 -19 -20 -20 -19 -19 -18 -18 -17 -16 -16 -15 -15 -15 -15 -15 -16 -16 -16 -15 -15 -15 -15 -14 -14 -14 -14 -15
-20 -19 -19 -18 -18 -18 -18 -17 -17 -17 -17 -16 -16 -17 -18 -19 -19 -19 -18 -18 -18 -18 -17 -16 -16 -16 -16 -16 -15 -16 -16 -16 -17 -16 -15 -15 -15 -14 -14 -14 -15 -15 -15
-20 -19 -18 -19 -19 -19 -18 -18 -17 -17 -17 -16 -16 -17 -17 -17 -18 -18 -18 -18 -18 -17 -17 -16 -16 -16 -16 -16 -16 -16 -16 -16 -16 -16 -15 -15 -15 -15 -15 -15 -15 -15 -15
-22 -20 -20 -19 -19 -18 -19 -19 -18 -18 -17 -17 -16 -16 -16 -17 -17 -17 -18 -17 -17 -17 -16 -16 -16 -16 -15 -15 -16 -16 -16 -17 -16 -16 -15 -15 -15 -15 -15 -15 -15 -15 -15
-21 -21 -20 -19 -19 -18 -18 -18 -19 -18 -18 -17 -16 -16 -16 -16 -16 -17 -17 -17 -17 -17 -17 -17 -16 -15 -15 -15 -16 -16 -16 -16 -15 -15 -15 -15 -15 -15 -15 -15 -15 -15 -15
-21 -21 -19 -19 -19 -19 -18 -19 -19 -19 -19 -19 -18 -17 -17 -17 -16 -15 -17 -17 -17 -16 -17 -16 -16 -16 -16 -16 -16 -16 -16 -15 -15 -15 -15 -15 -15 -15 -15 -15 -15 -15 -15
-21 -20 -19 -19 -19 -19 -19 -19 -18 -19 -19 -19 -18 -17 -17 -17 -17 -17 -16 -16 -15 -16 -15 -16 -15 -16 -16 -15 -16 -15 -15 -15 -15 -15 -15 -14 -16 -15 -16 -15 -16 -16 -16
-20 -20 -20 -19 -19 -19 -19 -19 -19 -18 -18 -18 -18 -19 -18 -18 -17 -17 -16 -17 -16 -15 -16 -16 -15 -15 -15 -15 -16 -16 -16 -16 -15 -16 -16 -17 -16 -15 -16 -16 -16 -15 -15
-20 -20 -20 -20 -19 -19 -19 -19 -19 -19 -19 -19 -19 -19 -19 -20 -19 -18 -17 -18 -17 -17 -17 -17 -16 -16 -16 -16 -16 -16 -16 -16 -16 -16 -16 -16 -16 -16 -16 -16 -16 -16 -16
-21 -21 -21 -20 -21 -21 -20 -20 -20 -21 -20 -20 -20 -20 -20 -19 -19 -20 -20 -19 -19 -19 -18 -17 -17 -17 -17 -17 -17 -17 -16 -16 -16 -16 -16 -16 -16 -16 -16 -16 -16 -16 -16
-21 -21 -21 -22 -22 -21 -22 -22 -22 -21 -21 -21 -21 -21 -21 -21 -20 -20 -20 -20 -20 -20 -20 -20 -19 -19 -19 -19 -19 -18 -17 -17 -17 -17 -17 -17 -16 -17 -17 -17 -17 -16 -16
-22 -22 -22 -22 -22 -22 -22 -22 -22 -22 -22 -22 -22 -22 -22 -21 -21 -21 -21 -21 -21 -21 -21 -21 -21 -21 -20 -20 -20 -19 -19 -19 -18 -18 -18 -18 -17 -18 -17 -17 -17 -17 -17
-22 -22 -22 -23 -23 -23 -23 -23 -23 -23 -23 -23 -23 -22 -22 -22 -22 -22 -22 -22 -21 -21 -21 -21 -21 -21 -21 -21 -21 -20 -20 -20 -20 -20 -20 -20 -19 -19 -18 -18 -18 -18 -17
-23 -23 -23 -23 -23 -23 -23 -23 -23 -23 -23 -23 -23 -23 -23 -23 -23 -22 -22 -22 -22 -22 -22 -22 -22 -22 -21 -21 -21 -21 -20 -20 -20 -20 -20 -20 -20 -20 -20 -20 -19 -19 -18

GFSMW_500_temp_120.txt.gz
Temp
-13 -13 -14 -14 -14 -14 -14 -14 -13 -13 -13 -13 -13 -13 -13 -13 -13 -14 -13 -12 -14 -15 -15 -14 -14 -15 -15 -15 -16 -16 -16 -15 -15 -15 -14 -14 -14 -14 -14 -14 -14 -14 -14
-14 -14 -14 -14 -14 -14 -14 -14 -14 -14 -13 -13 -13 -14 -14 -14 -13 -13 -14 -14 -14 -15 -15 -15 -14 -15 -15 -15 -15 -16 -16 -16 -16 -15 -15 -14 -14 -14 -14 -14 -14 -14 -15
-15 -16 -16 -15 -15 -15 -15 -15 -14 -14 -14 -14 -14 -14 -14 -14 -14 -14 -14 -15 -14 -14 -15 -15 -15 -14 -15 -15 -15 -16 -16 -16 -16 -16 -15 -15 -15 -15 -14 -14 -14 -15 -15
-17 -18 -17 -16 -16 -15 -15 -14 -14 -15 -15 -14 -14 -14 -14 -14 -14 -14 -14 -14 -14 -14 -14 -14 -15 -14 -14 -15 -15 -16 -16 -16 -16 -16 -16 -15 -15 -14 -14 -14 -14 -15 -15
-18 -18 -18 -17 -17 -16 -16 -15 -14 -14 -15 -15 -15 -15 -15 -15 -15 -15 -15 -14 -14 -14 -14 -15 -15 -15 -14 -14 -15 -15 -16 -16 -16 -16 -16 -16 -15 -15 -14 -14 -14 -14 -15
-19 -18 -17 -17 -17 -17 -16 -16 -16 -15 -16 -15 -15 -15 -15 -15 -15 -15 -15 -15 -14 -15 -15 -15 -15 -15 -15 -14 -11 -14 -16 -16 -17 -16 -16 -16 -16 -15 -15 -14 -14 -13 -14
-19 -19 -18 -17 -17 -17 -16 -16 -15 -15 -15 -15 -15 -15 -15 -15 -15 -15 -15 -15 -15 -15 -14 -15 -15 -15 -15 -14 -13 -15 -16 -15 -17 -17 -17 -16 -16 -15 -15 -15 -14 -14 -14
-19 -18 -17 -17 -16 -16 -16 -15 -15 -15 -15 -14 -14 -15 -15 -15 -15 -15 -15 -15 -15 -15 -14 -14 -15 -15 -15 -15 -14 -15 -14 -15 -16 -16 -17 -16 -16 -15 -15 -15 -14 -15 -14
-20 -19 -18 -17 -18 -17 -17 -17 -17 -16 -16 -17 -17 -17 -17 -16 -16 -16 -16 -15 -15 -15 -15 -14 -15 -15 -15 -15 -14 -14 -14 -14 -16 -16 -17 -16 -16 -15 -15 -15 -14 -14 -14
-21 -20 -20 -20 -19 -19 -18 -17 -17 -17 -16 -16 -16 -17 -17 -17 -17 -18 -18 -17 -17 -16 -15 -14 -14 -15 -15 -15 -14 -14 -14 -14 -15 -15 -16 -15 -16 -15 -14 -14 -14 -14 -14
-21 -20 -20 -19 -19 -19 -18 -18 -17 -16 -15 -15 -16 -16 -17 -17 -18 -18 -18 -18 -18 -18 -18 -16 -14 -16 -15 -16 -16 -14 -15 -14 -15 -15 -16 -15 -16 -15 -14 -14 -14 -14 -14
-21 -20 -20 -19 -19 -18 -18 -18 -17 -16 -16 -16 -16 -16 -17 -17 -18 -18 -18 -18 -19 -19 -19 -17 -16 -16 -16 -16 -16 -14 -14 -14 -15 -15 -15 -15 -16 -15 -14 -14 -14 -14 -14
-21 -20 -20 -19 -19 -18 -18 -17 -17 -17 -16 -16 -16 -16 -17 -17 -19 -19 -18 -19 -19 -19 -19 -19 -17 -17 -16 -17 -15 -15 -15 -15 -15 -15 -15 -16 -16 -15 -15 -15 -15 -14 -14
-21 -21 -20 -19 -18 -19 -18 -18 -18 -17 -17 -16 -16 -17 -17 -17 -18 -18 -18 -19 -19 -19 -18 -19 -18 -17 -17 -16 -16 -16 -15 -15 -15 -16 -15 -15 -15 -15 -15 -15 -15 -15 -16
-21 -21 -20 -19 -19 -19 -19 -18 -18 -18 -17 -17 -17 -16 -16 -17 -17 -18 -18 -18 -19 -18 -17 -17 -16 -15 -16 -16 -16 -15 -15 -15 -15 -15 -15 -16 -16 -16 -15 -15 -15 -15 -15
-21 -21 -21 -21 -20 -19 -19 -19 -19 -18 -18 -18 -17 -17 -16 -16 -17 -17 -18 -18 -18 -17 -16 -18 -17 -16 -16 -16 -15 -16 -16 -15 -15 -16 -15 -16 -16 -16 -15 -15 -15 -15 -15
-22 -21 -22 -21 -20 -19 -19 -19 -19 -19 -19 -18 -17 -17 -17 -17 -17 -17 -17 -18 -18 -18 -18 -18 -17 -17 -17 -16 -16 -16 -16 -15 -15 -15 -15 -15 -15 -15 -15 -15 -15 -15 -15
-21 -22 -21 -21 -20 -20 -19 -19 -19 -19 -19 -19 -18 -17 -17 -17 -17 -17 -17 -17 -17 -17 -18 -18 -17 -17 -16 -16 -15 -14 -15 -15 -15 -15 -15 -15 -15 -15 -15 -15 -15 -15 -15
-22 -21 -21 -21 -20 -20 -19 -19 -19 -19 -19 -19 -19 -19 -18 -17 -18 -18 -17 -17 -17 -17 -17 -17 -17 -17 -17 -16 -15 -15 -15 -15 -15 -15 -15 -15 -15 -15 -15 -15 -15 -15 -15
-22 -21 -21 -21 -20 -20 -20 -20 -20 -20 -20 -20 -19 -19 -19 -19 -18 -18 -18 -18 -18 -17 -17 -17 -17 -16 -17 -15 -15 -15 -14 -16 -15 -16 -16 -16 -16 -15 -16 -15 -16 -15 -15
-22 -22 -21 -21 -21 -21 -21 -21 -21 -21 -21 -20 -20 -20 -20 -20 -19 -19 -19 -19 -19 -18 -17 -17 -18 -17 -17 -16 -16 -16 -16 -16 -16 -16 -16 -16 -16 -16 -16 -16 -17 -17 -16
-22 -22 -22 -22 -22 -22 -22 -22 -22 -22 -22 -21 -21 -21 -21 -21 -21 -21 -21 -20 -20 -20 -19 -19 -18 -18 -18 -17 -17 -17 -17 -17 -17 -16 -16 -17 -17 -16 -17 -16 -16 -16 -16
-23 -22 -22 -23 -23 -22 -22 -22 -22 -22 -22 -22 -22 -22 -22 -21 -21 -21 -21 -21 -21 -22 -22 -21 -20 -20 -19 -19 -19 -19 -18 -18 -18 -18 -17 -17 -17 -17 -16 -16 -16 -16 -16
-23 -23 -23 -23 -23 -23 -22 -22 -22 -22 -22 -22 -22 -22 -22 -21 -22 -21 -21 -21 -21 -21 -21 -21 -21 -21 -22 -22 -21 -21 -20 -19 -19 -19 -19 -19 -19 -18 -17 -17 -17 -17 -17
-22 -22 -22 -23 -23 -23 -23 -23 -23 -23 -23 -23 -23 -23 -23 -23 -23 -22 -22 -22 -22 -22 -22 -22 -22 -21 -21 -21 -21 -21 -21 -21 -21 -22 -21 -21 -21 -21 -20 -21 -20 -19 -19
-23 -23 -23 -23 -23 -23 -23 -23 -23 -23 -23 -23 -23 -23 -23 -23 -23 -23 -22 -22 -22 -22 -22 -22 -22 -22 -22 -21 -21 -21 -21 -21 -21 -21 -21 -21 -21 -21 -21 -21 -21 -21 -21

GFSMW_500_temp_123.txt.gz
Temp
-14 -11 -13 -15 -15 -15 -14 -14 -14 -14 -13 -13 -14 -13 -13 -13 -13 -12 -13 -13 -13 -12 -12 -13 -13 -14 -14 -14 -14 -14 -14 -14 -14 -13 -14 -14 -15 -14 -14 -14 -14 -14 -14
-16 -15 -15 -16 -16 -16 -16 -15 -14 -14 -14 -14 -14 -14 -14 -13 -13 -13 -13 -13 -13 -13 -13 -12 -13 -14 -14 -13 -13 -14 -14 -14 -14 -14 -14 -14 -14 -14 -15 -14 -14 -14 -14
-17 -17 -17 -17 -18 -18 -17 -16 -16 -15 -14 -14 -14 -14 -14 -14 -13 -13 -13 -13 -12 -13 -13 -14 -13 -13 -15 -14 -14 -13 -14 -15 -14 -14 -14 -14 -14 -15 -15 -15 -14 -14 -14
-18 -19 -20 -19 -19 -19 -18 -18 -16 -16 -16 -15 -14 -14 -14 -14 -14 -14 -13 -13 -13 -13 -13 -13 -13 -13 -13 -14 -14 -14 -13 -14 -14 -14 -14 -14 -15 -14 -15 -15 -15 -14 -14
-19 -20 -19 -19 -19 -18 -18 -18 -17 -16 -16 -16 -15 -14 -14 -14 -14 -14 -14 -14 -14 -14 -14 -13 -14 -14 -14 -14 -13 -14 -13 -14 -16 -15 -14 -15 -14 -13 -15 -15 -16 -15 -14
-19 -19 -19 -19 -19 -19 -18 -18 -17 -17 -16 -16 -16 -15 -15 -15 -15 -15 -15 -14 -14 -14 -14 -15 -14 -15 -14 -14 -15 -15 -14 -15 -13 -16 -14 -14 -14 -13 -14 -15 -15 -15 -14
-20 -20 -20 -20 -19 -18 -18 -17 -17 -17 -17 -17 -16 -16 -15 -15 -15 -16 -16 -16 -15 -15 -15 -15 -15 -15 -15 -15 -15 -14 -13 -11 -13 -14 -14 -14 -14 -14 -14 -15 -15 -14 -14
-20 -20 -20 -19 -18 -18 -18 -17 -16 -16 -16 -16 -16 -16 -16 -16 -15 -15 -16 -16 -15 -15 -15 -15 -15 -15 -15 -15 -15 -15 -14 -14 -13 -13 -15 -14 -14 -14 -14 -15 -14 -15 -14
-21 -21 -20 -20 -19 -19 -18 -18 -17 -17 -16 -16 -15 -15 -15 -15 -15 -16 -16 -16 -16 -16 -16 -15 -15 -15 -15 -15 -15 -15 -15 -15 -14 -13 -14 -14 -15 -15 -15 -15 -15 -15 -15
-21 -22 -21 -21 -20 -20 -19 -19 -19 -18 -18 -17 -17 -16 -16 -16 -16 -17 -16 -16 -16 -16 -16 -16 -15 -15 -15 -15 -15 -15 -15 -14 -14 -14 -14 -14 -15 -16 -15 -15 -14 -15 -15
-22 -22 -21 -20 -20 -19 -19 -19 -18 -18 -18 -17 -17 -16 -15 -16 -16 -17 -17 -17 -18 -18 -18 -17 -16 -16 -15 -15 -15 -15 -16 -15 -14 -14 -15 -15 -15 -15 -16 -15 -15 -14 -15
-22 -21 -21 -21 -20 -20 -19 -18 -18 -18 -17 -17 -16 -15 -15 -16 -16 -17 -17 -18 -18 -18 -19 -18 -18 -17 -15 -15 -15 -15 -15 -15 -14 -14 -15 -15 -15 -15 -15 -15 -15 -14 -15
-22 -21 -21 -21 -20 -19 -19 -19 -18 -17 -17 -17 -16 -15 -15 -16 -16 -17 -17 -18 -18 -19 -19 -18 -18 -18 -17 -16 -15 -15 -15 -15 -15 -15 -15 -15 -15 -15 -15 -15 -15 -15 -15
-22 -21 -21 -21 -20 -20 -20 -19 -19 -18 -18 -17 -16 -15 -15 -16 -17 -16 -17 -18 -19 -19 -19 -19 -18 -18 -18 -18 -16 -15 -15 -15 -15 -15 -15 -15 -15 -15 -15 -16 -15 -15 -15
-22 -21 -21 -21 -21 -20 -20 -20 -20 -19 -18 -18 -16 -15 -15 -16 -17 -17 -17 -17 -18 -19 -19 -19 -19 -18 -18 -18 -17 -15 -15 -15 -15 -16 -15 -15 -15 -15 -16 -16 -15 -16 -15
-22 -21 -22 -21 -21 -21 -21 -20 -20 -19 -19 -18 -18 -17 -17 -17 -16 -17 -17 -18 -18 -18 -17 -18 -17 -18 -17 -18 -18 -16 -15 -15 -16 -15 -15 -15 -15 -15 -16 -15 -15 -15 -15
-22 -21 -21 -22 -22 -21 -21 -20 -20 -20 -20 -19 -18 -18 -17 -17 -17 -18 -17 -17 -17 -17 -17 -17 -17 -17 -16 -16 -16 -16 -15 -16 -15 -15 -15 -14 -15 -16 -15 -15 -15 -15 -15
-22 -21 -21 -21 -21 -21 -21 -20 -20 -20 -19 -19 -19 -19 -18 -18 -18 -18 -18 -17 -17 -17 -18 -16 -18 -16 -16 -16 -16 -16 -16 -14 -15 -15 -14 -16 -16 -16 -15 -15 -15 -15 -16
-22 -21 -21 -21 -21 -21 -21 -20 -20 -21 -21 -21 -20 -19 -19 -19 -19 -19 -18 -17 -18 -18 -17 -17 -18 -18 -18 -17 -17 -17 -16 -16 -16 -15 -17 -16 -15 -14 -14 -15 -15 -16 -15
-22 -22 -22 -22 -22 -22 -22 -21 -22 -22 -22 -21 -21 -21 -20 -20 -19 -19 -19 -19 -19 -18 -17 -17 -17 -17 -16 -17 -17 -17 -17 -17 -16 -16 -16 -15 -14 -16 -15 -15 -16 -15 -15
-22 -22 -22 -22 -22 -22 -22 -22 -22 -22 -22 -22 -22 -22 -21 -21 -21 -21 -21 -20 -19 -19 -19 -18 -18 -18 -18 -17 -17 -16 -17 -16 -16 -16 -16 -16 -16 -15 -15 -15 -16 -16 -16
-22 -23 -23 -23 -23 -22 -22 -22 -22 -22 -22 -22 -22 -22 -21 -21 -21 -21 -21 -21 -21 -21 -21 -21 -20 -19 -18 -18 -18 -18 -18 -17 -17 -16 -17 -16 -16 -16 -16 -16 -16 -16 -16
-23 -23 -23 -23 -23 -23 -23 -23 -23 -22 -22 -22 -22 -22 -22 -22 -21 -21 -21 -21 -21 -21 -21 -21 -21 -21 -21 -21 -21 -20 -19 -19 -18 -18 -18 -18 -18 -18 -17 -17 -17 -17 -17
-23 -23 -23 -23 -23 -23 -23 -23 -23 -23 -22 -23 -23 -23 -23 -23 -22 -22 -22 -22 -22 -22 -22 -22 -22 -22 -22 -21 -21 -21 -21 -21 -21 -21 -21 -20 -20 -19 -19 -19 -19 -19 -18
-23 -23 -23 -23 -23 -23 -23 -23 -23 -23 -23 -23 -23 -23 -23 -23 -23 -23 -23 -23 -23 -22 -22 -22 -22 -22 -22 -22 -22 -21 -21 -21 -21 -21 -21 -21 -21 -21 -21 -21 -22 -21 -20
-23 -23 -23 -23 -23 -23 -23 -23 -23 -23 -23 -23 -23 -23 -23 -23 -23 -23 -23 -23 -23 -23 -23 -22 -22 -22 -22 -22 -21 -21 -21 -21 -21 -21 -21 -21 -21 -21 -21 -20 -20 -20 -20

GFSMW_500_temp_126.txt.gz
Temp
-13 -13 -13 -13 -14 -16 -17 -16 -16 -16 -15 -14 -14 -12 -14 -13 -12 -12 -12 -13 -13 -13 -12 -12 -11 -11 -12 -14 -14 -13 -13 -14 -15 -14 -13 -13 -13 -14 -14 -14 -13 -14 -14
-17 -17 -16 -16 -16 -17 -17 -17 -17 -17 -16 -16 -15 -14 -14 -14 -13 -12 -12 -12 -13 -13 -13 -13 -13 -10 -13 -12 -12 -13 -14 -13 -13 -13 -14 -14 -14 -13 -14 -14 -14 -14 -14
-18 -18 -18 -18 -18 -17 -17 -17 -17 -17 -17 -17 -16 -16 -15 -15 -14 -13 -13 -13 -12 -13 -13 -13 -13 -14 -11 -12 -12 -13 -13 -13 -13 -13 -13 -14 -14 -14 -14 -13 -14 -14 -14
-19 -18 -18 -18 -18 -18 -17 -17 -17 -18 -18 -18 -17 -17 -16 -15 -15 -14 -14 -13 -13 -13 -12 -12 -13 -13 -13 -13 -13 -14 -13 -13 -13 -13 -13 -13 -14 -14 -14 -13 -13 -14 -14
-19 -18 -18 -18 -19 -19 -19 -19 -19 -19 -19 -19 -18 -17 -17 -16 -15 -15 -14 -14 -14 -13 -13 -13 -12 -13 -13 -13 -14 -13 -13 -13 -13 -14 -14 -14 -15 -15 -14 -14 -14 -13 -15
-20 -19 -19 -19 -19 -19 -20 -20 -20 -19 -18 -18 -18 -17 -17 -16 -16 -15 -15 -14 -14 -14 -13 -14 -13 -13 -13 -13 -13 -13 -13 -13 -13 -13 -13 -14 -15 -15 -14 -13 -15 -14 -14
-20 -20 -20 -21 -20 -20 -21 -21 -20 -19 -18 -18 -17 -17 -17 -16 -16 -16 -15 -15 -14 -14 -14 -14 -14 -14 -14 -13 -14 -13 -13 -13 -13 -12 -12 -13 -14 -14 -14 -12 -13 -14 -13
-20 -21 -21 -21 -20 -20 -20 -20 -19 -18 -17 -17 -17 -17 -17 -16 -16 -16 -16 -15 -15 -15 -14 -15 -15 -14 -15 -15 -14 -14 -14 -14 -13 -12 -12 -11 -13 -12 -14 -13 -13 -13 -13
-21 -21 -21 -20 -20 -20 -19 -19 -18 -18 -18 -17 -16 -16 -16 -16 -16 -16 -16 -16 -16 -15 -16 -15 -16 -15 -15 -15 -15 -15 -14 -15 -14 -13 -13 -14 -13 -13 -13 -14 -14 -14 -14
-22 -22 -21 -21 -20 -20 -19 -19 -19 -19 -19 -18 -17 -17 -16 -15 -15 -15 -15 -16 -16 -16 -16 -16 -16 -16 -16 -16 -15 -15 -15 -15 -15 -14 -14 -14 -14 -14 -14 -14 -15 -14 -14
-23 -22 -21 -21 -21 -20 -19 -19 -19 -19 -18 -17 -17 -17 -17 -17 -16 -16 -16 -16 -16 -16 -15 -15 -15 -16 -16 -16 -16 -15 -15 -16 -15 -15 -15 -14 -14 -14 -12 -14 -14 -14 -14
-22 -22 -22 -21 -21 -20 -20 -19 -19 -19 -18 -18 -17 -16 -16 -16 -15 -16 -16 -16 -17 -17 -17 -17 -17 -16 -16 -16 -16 -16 -16 -16 -16 -15 -15 -15 -15 -14 -13 -13 -14 -14 -14
-22 -22 -22 -21 -20 -20 -20 -20 -19 -19 -18 -18 -17 -17 -16 -16 -16 -16 -16 -17 -17 -17 -18 -18 -18 -18 -18 -18 -16 -16 -16 -16 -16 -16 -16 -16 -15 -16 -15 -14 -14 -15 -15
-22 -22 -21 -21 -21 -20 -20 -20 -19 -19 -19 -18 -17 -16 -16 -16 -16 -17 -17 -17 -17 -17 -18 -18 -18 -18 -19 -19 -18 -18 -16 -16 -16 -16 -16 -16 -16 -15 -16 -15 -15 -16 -16
-22 -22 -22 -22 -21 -20 -21 -20 -20 -20 -19 -19 -18 -17 -16 -17 -17 -17 -17 -17 -17 -17 -18 -18 -18 -19 -19 -19 -19 -18 -18 -17 -16 -16 -16 -15 -15 -15 -15 -16 -15 -16 -16
-22 -22 -22 -22 -21 -21 -21 -21 -21 -21 -21 -20 -19 -18 -18 -17 -17 -17 -17 -17 -18 -18 -17 -18 -18 -18 -19 -19 -18 -18 -18 -17 -16 -15 -15 -15 -15 -15 -15 -15 -15 -16 -16
-22 -22 -22 -22 -22 -21 -21 -21 -21 -20 -21 -21 -20 -20 -19 -19 -18 -18 -18 -18 -18 -18 -17 -17 -17 -17 -18 -19 -18 -18 -18 -17 -18 -15 -15 -15 -14 -15 -15 -15 -15 -15 -15
-22 -22 -22 -21 -21 -21 -21 -21 -21 -21 -21 -21 -20 -20 -20 -20 -19 -19 -19 -19 -18 -18 -18 -18 -18 -17 -17 -18 -18 -18 -18 -17 -17 -16 -16 -15 -15 -15 -16 -16 -14 -15 -15
-22 -22 -22 -22 -22 -22 -22 -22 -22 -22 -22 -22 -21 -21 -21 -21 -20 -20 -19 -19 -19 -19 -18 -18 -18 -18 -18 -18 -17 -17 -17 -17 -17 -17 -16 -16 -16 -16 -15 -15 -15 -15 -15
-22 -22 -22 -22 -23 -23 -23 -22 -22 -22 -22 -22 -22 -22 -21 -21 -21 -21 -21 -21 -21 -20 -19 -19 -19 -18 -19 -18 -17 -17 -17 -17 -17 -16 -16 -16 -16 -16 -15 -15 -16 -15 -16
-22 -22 -22 -23 -23 -23 -23 -23 -23 -23 -23 -22 -22 -22 -22 -21 -21 -21 -21 -21 -21 -21 -21 -21 -21 -21 -20 -20 -19 -18 -18 -18 -17 -17 -17 -17 -16 -16 -16 -16 -16 -16 -16
-22 -23 -23 -23 -23 -23 -23 -23 -22 -23 -22 -22 -22 -22 -22 -22 -22 -21 -21 -21 -21 -21 -21 -21 -21 -21 -21 -21 -21 -21 -21 -20 -19 -18 -17 -17 -17 -16 -16 -17 -16 -16 -16
-23 -23 -23 -23 -23 -23 -23 -23 -23 -23 -23 -23 -22 -23 -23 -22 -23 -22 -22 -22 -22 -22 -22 -22 -22 -22 -22 -21 -21 -21 -21 -20 -20 -20 -20 -19 -18 -18 -18 -18 -18 -17 -17
-23 -23 -23 -23 -23 -23 -23 -23 -23 -23 -23 -23 -23 -23 -23 -23 -23 -23 -23 -23 -23 -23 -23 -23 -23 -23 -22 -22 -22 -22 -22 -21 -21 -21 -21 -21 -21 -20 -20 -20 -20 -20 -19
-23 -23 -24 -24 -24 -24 -24 -23 -23 -23 -23 -23 -23 -23 -23 -23 -24 -23 -23 -23 -23 -23 -23 -23 -23 -23 -22 -22 -22 -22 -22 -22 -22 -22 -22 -21 -21 -21 -21 -21 -21 -20 -20
-24 -24 -24 -24 -24 -24 -24 -24 -24 -24 -24 -24 -24 -23 -23 -23 -23 -23 -23 -23 -23 -23 -23 -23 -23 -23 -23 -22 -22 -22 -22 -22 -22 -22 -22 -21 -21 -21 -21 -21 -21 -21 -21

GFSMW_500_temp_132.txt.gz
Temp
-14 -14 -14 -13 -13 -13 -13 -13 -13 -13 -13 -13 -13 -13 -13 -13 -14 -14 -14 -14 -14 -13 -13 -13 -13 -13 -11 -12 -12 -13 -13 -12 -13 -13 -13 -13 -13 -12 -13 -13 -13 -13 -13
-15 -15 -15 -14 -14 -14 -14 -14 -14 -14 -14 -14 -14 -14 -15 -15 -15 -15 -15 -16 -15 -14 -13 -13 -13 -14 -13 -11 -12 -12 -12 -13 -12 -12 -13 -13 -13 -13 -13 -13 -13 -13 -13
-15 -15 -15 -15 -15 -15 -15 -15 -15 -16 -16 -16 -16 -16 -17 -17 -18 -18 -17 -16 -17 -16 -15 -14 -14 -15 -15 -13 -12 -13 -12 -12 -13 -13 -13 -12 -12 -13 -14 -13 -13 -14 -14
-16 -16 -16 -16 -16 -16 -16 -17 -17 -18 -18 -18 -18 -18 -18 -18 -18 -18 -18 -18 -17 -17 -17 -16 -15 -15 -15 -16 -14 -14 -13 -13 -13 -13 -12 -13 -13 -12 -13 -13 -13 -13 -13
-17 -17 -17 -17 -17 -18 -18 -19 -19 -19 -19 -19 -19 -19 -18 -18 -18 -17 -17 -17 -17 -17 -17 -17 -16 -16 -16 -15 -16 -15 -14 -13 -13 -13 -12 -12 -12 -12 -12 -13 -13 -13 -13
-18 -18 -19 -19 -19 -19 -19 -19 -19 -19 -19 -18 -18 -18 -18 -18 -17 -17 -17 -17 -17 -17 -17 -17 -17 -17 -16 -16 -16 -15 -15 -14 -13 -13 -13 -13 -13 -13 -13 -13 -13 -13 -14
-19 -19 -19 -19 -19 -19 -19 -19 -19 -19 -19 -19 -18 -18 -18 -17 -17 -17 -16 -17 -17 -17 -17 -17 -17 -16 -17 -16 -16 -16 -15 -15 -13 -13 -13 -13 -12 -13 -13 -13 -13 -13 -13
-20 -20 -19 -19 -19 -19 -20 -20 -19 -19 -18 -18 -18 -17 -17 -17 -17 -16 -16 -16 -16 -16 -17 -17 -17 -17 -16 -17 -17 -16 -15 -15 -15 -14 -13 -14 -13 -13 -13 -13 -13 -13 -13
-20 -20 -20 -20 -20 -20 -20 -19 -19 -19 -18 -18 -19 -18 -18 -18 -18 -17 -18 -17 -16 -16 -16 -17 -17 -17 -16 -17 -17 -16 -16 -15 -15 -14 -14 -14 -14 -13 -13 -12 -13 -13 -12
-21 -21 -21 -20 -20 -20 -20 -20 -20 -20 -19 -19 -18 -18 -18 -18 -18 -18 -18 -18 -17 -16 -16 -17 -17 -17 -17 -17 -17 -17 -16 -15 -16 -15 -15 -14 -15 -14 -14 -14 -14 -13 -13
-22 -22 -22 -22 -21 -22 -22 -21 -21 -20 -20 -19 -18 -17 -18 -18 -18 -18 -18 -18 -18 -18 -17 -16 -16 -17 -17 -17 -17 -17 -16 -16 -16 -16 -16 -15 -16 -15 -15 -15 -15 -14 -13
-23 -23 -24 -23 -23 -22 -22 -21 -21 -21 -20 -19 -18 -18 -18 -18 -18 -17 -18 -18 -18 -18 -18 -18 -17 -17 -17 -17 -17 -17 -16 -16 -16 -16 -16 -16 -16 -16 -16 -15 -15 -15 -15
-24 -24 -24 -23 -23 -22 -22 -21 -21 -21 -20 -20 -19 -18 -19 -19 -19 -19 -18 -18 -17 -18 -18 -18 -18 -18 -17 -17 -17 -17 -17 -16 -16 -16 -16 -16 -16 -16 -16 -16 -16 -16 -15
-24 -24 -23 -23 -22 -22 -22 -22 -21 -21 -21 -20 -20 -20 -19 -19 -18 -18 -18 -18 -18 -18 -18 -18 -18 -18 -18 -18 -18 -17 -17 -17 -16 -16 -16 -16 -16 -16 -16 -16 -16 -16 -16
-23 -23 -23 -23 -22 -22 -22 -22 -21 -21 -21 -21 -21 -20 -20 -19 -19 -19 -18 -18 -18 -18 -18 -18 -18 -18 -18 -17 -17 -17 -17 -17 -17 -17 -16 -16 -16 -16 -17 -17 -16 -16 -16
-23 -23 -23 -22 -22 -22 -22 -21 -22 -21 -21 -21 -21 -21 -20 -20 -20 -20 -20 -19 -19 -18 -18 -18 -18 -18 -18 -17 -17 -17 -18 -17 -18 -18 -18 -18 -18 -18 -17 -17 -17 -17 -16
-22 -22 -23 -22 -22 -22 -22 -22 -23 -23 -23 -23 -23 -23 -23 -22 -22 -21 -20 -21 -20 -19 -19 -19 -18 -18 -18 -17 -17 -17 -18 -19 -19 -19 -19 -19 -19 -19 -19 -18 -17 -17 -17
-22 -22 -22 -22 -22 -22 -23 -24 -24 -23 -23 -22 -22 -22 -22 -22 -21 -21 -21 -21 -21 -21 -21 -21 -20 -19 -20 -19 -19 -18 -19 -19 -19 -20 -20 -20 -20 -20 -19 -19 -18 -18 -17
-22 -22 -22 -22 -23 -22 -23 -23 -24 -23 -23 -22 -23 -23 -22 -22 -22 -22 -22 -22 -21 -21 -21 -21 -21 -21 -21 -21 -20 -20 -21 -21 -20 -20 -20 -20 -20 -19 -19 -19 -19 -19 -18
-22 -22 -22 -22 -22 -23 -24 -23 -23 -23 -23 -23 -23 -23 -23 -23 -23 -23 -22 -22 -22 -22 -22 -22 -22 -22 -22 -22 -22 -22 -22 -22 -20 -21 -21 -21 -20 -20 -19 -19 -19 -19 -19
-23 -23 -23 -23 -23 -24 -24 -23 -23 -23 -24 -24 -24 -23 -23 -23 -23 -23 -23 -23 -23 -22 -22 -22 -23 -23 -23 -23 -23 -22 -22 -22 -22 -22 -23 -22 -21 -20 -20 -20 -19 -21 -20
-23 -23 -23 -23 -23 -24 -23 -23 -23 -24 -24 -24 -24 -24 -23 -23 -23 -23 -23 -23 -23 -23 -23 -23 -23 -23 -23 -23 -23 -23 -23 -23 -23 -22 -22 -22 -23 -24 -23 -23 -22 -21 -20
-23 -23 -23 -23 -24 -23 -23 -24 -24 -24 -24 -24 -24 -24 -23 -23 -23 -23 -23 -23 -23 -23 -23 -23 -23 -23 -23 -23 -23 -23 -23 -23 -23 -23 -23 -23 -23 -22 -23 -23 -23 -24 -24
-23 -23 -23 -23 -24 -23 -24 -24 -24 -24 -24 -24 -24 -24 -24 -24 -24 -24 -24 -24 -24 -24 -24 -24 -24 -24 -23 -23 -23 -23 -23 -23 -23 -23 -23 -23 -23 -23 -23 -23 -22 -22 -22
-23 -23 -23 -24 -24 -24 -24 -24 -24 -24 -24 -24 -24 -24 -24 -24 -24 -24 -24 -24 -24 -24 -24 -24 -24 -24 -24 -24 -24 -24 -24 -24 -23 -23 -23 -23 -23 -23 -23 -23 -23 -22 -22
-23 -23 -23 -24 -24 -24 -24 -24 -24 -24 -24 -24 -24 -24 -24 -25 -25 -24 -24 -24 -24 -24 -24 -24 -24 -24 -24 -24 -24 -24 -24 -24 -24 -24 -24 -24 -23 -23 -23 -23 -23 -23 -23